<- Previous Day | Today | Next Day ->

All Data for 04 June 2020

 

Time A - D Temp A - D Dew Point A - D Humidity A - D Pressure A - D Wind A - D Wind Dir Gust A - D Rain Rate A - D Rain Total
00:00 12.8 9.8 82 1008.5 7.6 N 11.4 0.0 0.0
00:01 12.8 9.8 82 1008.4 3.1 SE 10.7 0.0 0.0
00:02 12.8 9.6 81 1008.4 4.5 NW 9.8 0.0 0.0
00:03 12.7 9.5 81 1008.3 7.6 NW 9.8 0.0 0.0
00:04 12.7 9.5 81 1008.4 9.8 WNW 9.8 0.0 0.0
00:05 12.7 9.5 81 1008.5 9.8 N 9.8 0.0 0.0
00:06 12.7 9.5 81 1008.2 6.9 NE 9.8 0.0 0.0
00:07 12.7 9.5 81 1008.1 12.1 SW 12.1 0.0 0.0
00:09 12.7 9.5 81 1008.3 6.0 W 12.1 0.0 0.0
00:10 12.7 9.5 81 1008.4 6.0 W 12.1 0.0 0.0
00:11 12.7 9.5 81 1008.2 11.4 NW 12.1 0.0 0.0
00:12 12.7 9.5 81 1008.3 8.3 SW 12.1 0.0 0.0
00:13 12.7 9.5 81 1008.4 7.6 NE 12.1 0.0 0.0
00:14 12.7 9.5 81 1008.4 7.6 NE 12.1 0.0 0.0
00:15 12.7 9.5 81 1008.2 5.4 SE 12.1 0.0 0.0
00:16 12.7 9.5 81 1008.3 5.4 SE 12.1 0.0 0.0
00:17 12.7 9.5 81 1008.4 6.9 NW 12.1 0.0 0.0
00:18 12.7 9.5 81 1008.4 8.3 NW 12.1 0.0 0.0
00:19 12.7 9.5 81 1008.4 9.2 NW 11.4 0.0 0.0
00:21 12.7 9.5 81 1008.3 12.1 NW 12.1 0.0 0.0
00:22 12.7 9.5 81 1008.4 9.2 SW 12.1 0.0 0.0
00:24 12.7 9.5 81 1008.4 12.1 W 12.1 0.0 0.0
00:25 12.6 9.4 81 1008.1 12.1 N 12.1 0.0 0.0
00:26 12.6 9.4 81 1008.2 8.3 N 12.1 0.0 0.0
00:27 12.6 9.4 81 1007.9 9.2 NW 12.1 0.0 0.0
00:28 12.6 9.4 81 1008.5 7.6 W 12.1 0.0 0.0
00:29 12.6 9.4 81 1008.5 7.6 W 12.1 0.0 0.0
00:30 12.6 9.4 81 1008.3 9.2 W 12.1 0.0 0.0
00:31 12.6 9.4 81 1008.2 6.9 NW 12.1 0.0 0.0
00:32 12.6 9.4 81 1008.1 8.3 W 12.1 0.0 0.0
00:33 12.6 9.4 81 1008.3 10.7 N 12.1 0.0 0.0
00:34 12.6 9.4 81 1008.4 18.3 SW 18.3 0.0 0.0
00:35 12.6 9.4 81 1008.3 6.0 NE 18.3 0.0 0.0
00:36 12.6 9.4 81 1008.3 6.9 SW 18.3 0.0 0.0
00:37 12.6 9.4 81 1008.4 9.2 N 18.3 0.0 0.0
00:39 12.6 9.4 81 1008.1 10.7 NW 18.3 0.0 0.0
00:40 12.5 9.3 81 1008.3 6.0 SW 18.3 0.0 0.0
00:41 12.5 9.3 81 1008.2 10.7 NW 18.3 0.0 0.0
00:42 12.5 9.3 81 1008.0 13.0 N 18.3 0.0 0.0
00:43 12.5 9.3 81 1008.4 11.4 N 18.3 0.0 0.0
00:44 12.5 9.3 81 1008.4 11.4 W 13.0 0.0 0.0
00:45 12.5 9.3 81 1008.2 11.4 NW 13.0 0.0 0.0
00:46 12.5 9.3 81 1008.0 8.3 NW 13.0 0.0 0.0
00:47 12.5 9.3 81 1008.0 8.3 N 13.0 0.0 0.0
00:48 12.5 9.3 81 1008.4 9.8 NW 13.0 0.0 0.0
00:49 12.5 9.3 81 1008.2 6.0 W 13.0 0.0 0.0
00:50 12.4 9.8 84 1008.0 6.9 W 13.0 0.0 0.0
00:51 12.4 9.6 83 1008.2 5.4 N 13.0 0.0 0.0
00:52 12.4 9.6 83 1008.2 4.5 SW 13.0 0.0 0.0
00:53 12.4 9.6 83 1008.1 12.1 W 12.1 0.0 0.0
00:55 12.4 9.6 83 1008.2 4.5 NW 12.1 0.0 0.0
00:56 12.3 9.5 83 1008.1 12.1 N 12.1 0.0 0.0
00:57 12.3 9.5 83 1008.2 12.1 WNW 12.1 0.0 0.0
00:58 12.3 9.5 83 1008.2 6.9 NW 12.1 0.0 0.0
00:59 12.3 9.5 83 1008.2 6.9 N 12.1 0.0 0.0
01:00 12.3 9.5 83 1008.2 7.6 N 12.1 0.0 0.0
01:01 12.3 9.5 83 1008.2 7.6 N 12.1 0.0 0.0
01:02 12.3 9.5 83 1008.2 7.6 N 12.1 0.0 0.0
01:03 12.3 9.5 83 1008.1 7.6 N 12.1 0.0 0.0
01:04 12.3 9.5 83 1008.2 7.6 N 12.1 0.0 0.0
01:05 12.3 9.5 83 1008.3 7.6 N 12.1 0.0 0.0
01:06 12.3 9.5 83 1008.0 7.6 N 12.1 0.0 0.0
01:07 12.2 9.4 83 1008.4 11.4 E 12.1 0.0 0.0
01:09 12.2 9.4 83 1008.3 9.2 N 11.4 0.0 0.0
01:10 12.2 9.4 83 1008.2 4.5 W 11.4 0.0 0.0
01:11 12.2 9.4 83 1008.4 7.6 NW 11.4 0.0 0.0
01:12 12.2 9.4 83 1008.3 6.9 N 11.4 0.0 0.0
01:13 12.2 9.4 83 1008.3 10.7 W 11.4 0.0 0.0
01:14 12.2 9.4 83 1008.3 10.7 W 11.4 0.0 0.0
01:15 12.2 9.4 83 1008.3 7.6 SW 11.4 0.0 0.0
01:16 12.2 9.4 83 1008.3 7.6 NE 11.4 0.0 0.0
01:17 12.2 9.4 83 1008.4 9.2 N 11.4 0.0 0.0
01:18 12.2 9.4 83 1008.2 8.3 NW 11.4 0.0 0.0
01:19 12.2 9.4 83 1008.3 6.9 SW 11.4 0.0 0.0
01:20 12.2 9.4 83 1008.4 9.2 NW 11.4 0.0 0.0
01:21 12.2 9.4 83 1008.6 8.3 WSW 11.4 0.0 0.0
01:22 12.2 9.4 83 1008.4 6.9 NW 10.7 0.0 0.0
01:24 12.2 9.4 83 1008.2 6.0 W 9.2 0.0 0.0
01:25 12.2 9.4 83 1008.4 4.5 NW 9.2 0.0 0.0
01:26 12.2 9.4 83 1008.5 7.6 NW 9.2 0.0 0.0
01:27 12.2 9.4 83 1008.2 7.6 N 9.2 0.0 0.0
01:28 12.2 9.4 83 1008.2 5.4 NW 9.2 0.0 0.0
01:29 12.2 9.4 83 1008.2 5.4 NW 9.2 0.0 0.0
01:30 12.2 9.4 83 1008.4 6.9 S 9.2 0.0 0.0
01:31 12.2 9.4 83 1008.2 6.9 WSW 7.6 0.0 0.0
01:32 12.2 9.4 83 1008.3 6.9 WSW 7.6 0.0 0.0
01:33 12.2 9.4 83 1008.0 9.8 N 9.8 0.0 0.0
01:34 12.2 9.4 83 1008.2 7.6 NW 9.8 0.0 0.0
01:35 12.2 9.4 83 1008.1 3.8 W 9.8 0.0 0.0
01:36 12.2 9.4 83 1008.1 5.4 NW 10.7 0.0 0.0
01:38 12.2 9.4 83 1008.2 6.0 NW 10.7 0.0 0.0
01:39 12.2 9.4 83 1008.3 5.4 WNW 10.7 0.0 0.0
01:40 12.2 9.4 83 1008.0 6.9 NW 10.7 0.0 0.0
01:41 12.2 9.4 83 1008.1 9.2 S 10.7 0.0 0.0
01:42 12.2 9.4 83 1008.0 9.2 S 10.7 0.0 0.0
01:43 12.2 9.4 83 1008.2 6.9 E 10.7 0.0 0.0
01:44 12.2 9.4 83 1008.2 8.3 W 10.7 0.0 0.0
01:45 12.2 9.4 83 1008.1 10.7 N 10.7 0.0 0.0
01:46 12.2 9.4 83 1008.3 7.6 N 10.7 0.0 0.0
01:47 12.2 9.4 83 1008.2 6.0 N 10.7 0.0 0.0
01:48 12.2 9.4 83 1008.1 5.4 NW 10.7 0.0 0.0
01:49 12.2 9.4 83 1008.2 9.8 NW 10.7 0.0 0.0
01:50 12.2 9.4 83 1008.2 6.0 E 10.7 0.0 0.0
01:51 12.2 9.4 83 1008.2 13.0 W 13.0 0.0 0.0
01:53 12.1 9.3 83 1008.1 7.6 W 13.0 0.0 0.0
01:54 12.1 9.3 83 1008.3 14.5 W 14.5 0.0 0.0
01:55 12.1 9.3 83 1008.1 11.4 N 14.5 0.0 0.0
01:56 12.1 9.1 82 1008.0 8.3 SW 14.5 0.0 0.0
01:57 12.1 9.1 82 1008.0 9.2 NW 14.5 0.0 0.0
01:58 12.1 9.1 82 1008.0 9.2 NW 14.5 0.0 0.0
01:59 12.1 9.1 82 1008.3 6.0 N 14.5 0.0 0.0
02:00 12.1 9.1 82 1008.2 9.8 NW 14.5 0.0 0.0
02:01 12.1 9.1 82 1008.1 9.8 NW 14.5 0.0 0.0
02:02 12.1 9.1 82 1008.0 9.2 W 14.5 0.0 0.0
02:03 12.1 9.1 82 1008.1 7.6 S 14.5 0.0 0.0
02:04 12.1 9.1 82 1007.8 4.5 W 14.5 0.0 0.0
02:05 12.1 9.1 82 1007.8 4.5 W 11.4 0.0 0.0
02:07 12.1 9.1 82 1008.0 9.2 NW 9.8 0.0 0.0
02:08 12.1 9.1 82 1008.1 8.3 NW 9.8 0.0 0.0
02:09 12.1 9.1 82 1008.0 7.6 WNW 9.8 0.0 0.0
02:10 12.1 9.1 82 1008.0 5.4 W 9.8 0.0 0.0
02:11 12.1 9.1 82 1008.0 5.4 NE 9.2 0.0 0.0
02:12 12.0 9.0 82 1008.1 4.5 W 9.2 0.0 0.0
02:13 12.0 9.0 82 1008.0 4.5 NW 9.2 0.0 0.0
02:14 12.0 9.0 82 1008.0 10.7 N 10.7 0.0 0.0
02:15 12.0 9.0 82 1008.1 8.3 W 10.7 0.0 0.0
02:16 12.0 9.0 82 1008.2 7.6 SW 10.7 0.0 0.0
02:17 12.0 9.0 82 1007.9 9.2 NE 10.7 0.0 0.0
02:18 12.0 9.0 82 1008.0 9.2 N 10.7 0.0 0.0
02:19 12.0 9.0 82 1007.9 9.8 W 10.7 0.0 0.0
02:20 12.0 9.0 82 1008.0 12.1 NW 12.1 0.0 0.0
02:22 12.0 8.8 81 1008.0 13.0 SW 13.0 0.0 0.0
02:23 12.0 8.8 81 1008.0 13.0 N 13.0 0.0 0.0
02:24 12.0 8.8 81 1007.7 7.6 N 13.0 0.0 0.0
02:25 12.0 8.8 81 1007.8 6.9 NE 13.0 0.0 0.0
02:26 12.0 8.8 81 1008.0 3.8 WNW 13.0 0.0 0.0
02:27 12.0 8.8 81 1007.8 7.6 NW 13.0 0.0 0.0
02:28 12.0 8.8 81 1007.9 9.8 N 13.0 0.0 0.0
02:29 12.0 8.8 81 1007.9 9.2 SW 13.0 0.0 0.0
02:30 12.0 8.8 81 1007.7 9.2 SW 13.0 0.0 0.0
02:31 12.0 8.8 81 1007.7 3.1 SE 13.0 0.0 0.0
02:32 12.0 8.8 81 1007.9 3.8 SW 13.0 0.0 0.0
02:33 11.9 8.7 81 1007.7 4.5 SW 13.0 0.0 0.0
02:34 11.9 8.7 81 1007.8 6.9 N 13.0 0.0 0.0
02:36 11.9 8.7 81 1007.9 7.6 W 13.0 0.0 0.0
02:37 11.9 8.7 81 1007.7 8.3 NE 13.0 0.0 0.0
02:38 11.9 8.7 81 1007.7 8.3 SW 13.0 0.0 0.0
02:39 11.9 8.7 81 1007.6 9.2 NW 13.0 0.0 0.0
02:40 11.9 8.7 81 1007.7 6.0 N 13.0 0.0 0.0
02:41 11.9 8.7 81 1007.7 6.0 N 10.7 0.0 0.0
02:42 11.9 8.7 81 1007.8 9.2 SW 10.7 0.0 0.0
02:43 11.9 8.7 81 1007.7 6.9 NW 10.7 0.0 0.0
02:44 11.9 8.7 81 1007.6 6.0 N 10.7 0.0 0.0
02:45 11.9 8.7 81 1007.6 6.0 N 9.2 0.0 0.0
02:46 11.9 8.7 81 1007.8 7.6 N 9.2 0.0 0.0
02:47 11.9 8.7 81 1007.5 12.1 WNW 12.1 0.0 0.0
02:48 11.9 8.7 81 1007.6 9.8 SW 12.1 0.0 0.0
02:50 11.8 8.6 81 1007.7 7.6 SW 12.1 0.0 0.0
02:51 11.8 8.5 80 1007.5 6.9 NE 12.1 0.0 0.0
02:52 11.8 8.5 80 1007.6 9.2 NW 12.1 0.0 0.0
02:53 11.8 8.5 80 1007.6 9.2 NW 12.1 0.0 0.0
02:54 11.8 8.5 80 1007.7 11.4 N 12.1 0.0 0.0
02:55 11.7 8.4 80 1007.6 6.0 WNW 12.1 0.0 0.0
02:56 11.7 8.4 80 1007.6 6.9 W 12.1 0.0 0.0
02:57 11.7 8.4 80 1007.8 7.6 NW 12.1 0.0 0.0
02:58 11.7 8.4 80 1007.8 6.0 N 11.4 0.0 0.0
02:59 11.7 8.4 80 1008.0 6.9 SW 11.4 0.0 0.0
03:00 11.7 8.4 80 1007.8 9.8 NW 11.4 0.0 0.0
03:01 11.7 8.4 80 1008.0 9.8 NW 11.4 0.0 0.0
03:02 11.7 8.4 80 1007.8 9.8 NW 11.4 0.0 0.0
03:04 11.7 8.4 80 1007.5 9.8 NW 11.4 0.0 0.0
03:05 11.7 8.4 80 1007.5 9.8 NW 9.8 0.0 0.0
03:06 11.6 8.5 81 1007.7 11.4 N 11.4 0.0 0.0
03:07 11.6 8.5 81 1007.5 11.4 N 11.4 0.0 0.0
03:08 11.6 8.5 81 1007.6 9.2 N 11.4 0.0 0.0
03:09 11.6 8.5 81 1007.6 9.2 N 11.4 0.0 0.0
03:10 11.6 8.5 81 1007.5 5.4 N 11.4 0.0 0.0
03:11 11.6 8.5 81 1007.6 6.9 W 11.4 0.0 0.0
03:12 11.6 8.5 81 1007.7 6.0 N 11.4 0.0 0.0
03:13 11.6 8.5 81 1007.6 6.0 NW 11.4 0.0 0.0
03:14 11.6 8.5 81 1007.8 6.0 NE 11.4 0.0 0.0
03:15 11.6 8.5 81 1007.7 3.8 N 11.4 0.0 0.0
03:16 11.6 8.5 81 1007.5 6.9 W 11.4 0.0 0.0
03:18 11.6 8.5 81 1007.6 6.9 NW 9.2 0.0 0.0
03:19 11.6 8.5 81 1007.5 4.5 NW 9.2 0.0 0.0
03:20 11.6 8.5 81 1007.5 7.6 N 9.2 0.0 0.0
03:21 11.6 8.5 81 1007.8 3.1 SW 7.6 0.0 0.0
03:22 11.6 8.5 81 1007.6 4.5 W 7.6 0.0 0.0
03:23 11.6 8.5 81 1007.8 6.9 N 7.6 0.0 0.0
03:24 11.6 8.5 81 1007.6 9.2 W 9.2 0.0 0.0
03:25 11.6 8.5 81 1007.5 9.8 NW 9.8 0.0 0.0
03:26 11.6 8.5 81 1007.5 9.8 NW 9.8 0.0 0.0
03:27 11.6 8.5 81 1007.5 4.5 N 9.8 0.0 0.0
03:28 11.6 8.5 81 1007.5 3.8 N 9.8 0.0 0.0
03:29 11.6 8.5 81 1007.5 3.8 W 9.8 0.0 0.0
03:30 11.6 8.5 81 1007.6 5.4 NW 9.8 0.0 0.0
03:31 11.6 8.5 81 1007.7 4.5 S 9.8 0.0 0.0
03:33 11.5 8.4 81 1007.6 7.6 NW 9.8 0.0 0.0
03:34 11.5 8.4 81 1007.7 6.9 NW 9.8 0.0 0.0
03:35 11.5 8.4 81 1007.7 8.3 SW 9.8 0.0 0.0
03:36 11.4 8.3 81 1007.5 6.0 NW 8.3 0.0 0.0
03:37 11.4 8.3 81 1007.6 5.4 NW 8.3 0.0 0.0
03:38 11.4 8.3 81 1007.6 5.4 NW 8.3 0.0 0.0
03:39 11.4 8.3 81 1007.7 7.6 S 8.3 0.0 0.0
03:40 11.4 8.3 81 1007.7 6.0 SE 8.3 0.0 0.0
03:41 11.4 8.3 81 1007.6 6.9 N 8.3 0.0 0.0
03:42 11.4 8.3 81 1007.4 6.9 N 8.3 0.0 0.0
03:43 11.4 8.3 81 1007.6 5.4 N 8.3 0.0 0.0
03:44 11.4 8.3 81 1007.4 2.2 N 8.3 0.0 0.0
03:45 11.3 8.2 81 1007.5 4.5 E 8.3 0.0 0.0
03:47 11.3 8.2 81 1007.5 9.8 NW 9.8 0.0 0.0
03:48 11.3 8.2 81 1007.7 5.4 N 9.8 0.0 0.0
03:49 11.3 8.2 81 1007.4 3.8 NE 9.8 0.0 0.0
03:50 11.3 8.2 81 1007.5 11.4 N 11.4 0.0 0.0
03:51 11.2 8.1 81 1007.6 9.2 W 11.4 0.0 0.0
03:52 11.2 8.1 81 1007.5 11.4 W 11.4 0.0 0.0
03:53 11.2 8.1 81 1007.5 8.3 W 11.4 0.0 0.0
03:54 11.2 8.1 81 1007.5 8.3 NW 11.4 0.0 0.0
03:55 11.2 8.1 81 1007.4 4.5 N 11.4 0.0 0.0
03:56 11.2 8.1 81 1007.5 6.9 N 11.4 0.0 0.0
03:57 11.2 8.1 81 1007.4 3.8 NW 11.4 0.0 0.0
03:58 11.2 8.1 81 1007.3 6.0 NW 11.4 0.0 0.0
03:59 11.2 8.1 81 1007.7 8.3 NW 11.4 0.0 0.0
04:01 11.2 8.1 81 1007.5 3.1 SE 11.4 0.0 0.0
04:02 11.1 8.0 81 1007.3 3.8 N 8.3 0.0 0.0
04:03 11.1 8.0 81 1007.4 4.5 W 8.3 0.0 0.0
04:04 11.1 8.0 81 1007.4 5.4 W 8.3 0.0 0.0
04:05 11.1 8.0 81 1007.7 3.1 SW 8.3 0.0 0.0
04:06 11.1 8.0 81 1007.7 3.1 SW 8.3 0.0 0.0
04:07 11.1 8.0 81 1007.6 3.8 NW 8.3 0.0 0.0
04:08 11.1 8.0 81 1007.4 3.1 NW 8.3 0.0 0.0
04:09 11.1 8.0 81 1007.4 4.5 N 8.3 0.0 0.0
04:10 11.0 7.9 81 1007.6 6.9 W 6.9 0.0 0.0
04:11 11.0 7.9 81 1007.5 3.1 NE 6.9 0.0 0.0
04:12 11.0 7.9 81 1007.5 6.0 N 6.9 0.0 0.0
04:13 11.0 7.9 81 1007.7 6.9 W 6.9 0.0 0.0
04:14 11.0 7.9 81 1007.4 4.5 NW 6.9 0.0 0.0
04:16 11.0 8.0 82 1007.6 5.4 NW 7.6 0.0 0.0
04:17 10.9 8.0 82 1007.4 5.4 NE 7.6 0.0 0.0
04:18 10.9 8.0 82 1007.6 6.0 NW 7.6 0.0 0.0
04:19 10.9 8.0 82 1007.4 3.1 SE 7.6 0.0 0.0
04:20 10.9 8.0 82 1007.3 3.1 N 7.6 0.0 0.0
04:21 10.9 8.0 82 1007.6 3.8 NW 7.6 0.0 0.0
04:22 10.9 8.0 82 1007.6 6.0 NE 7.6 0.0 0.0
04:23 10.9 8.0 82 1007.4 5.4 N 7.6 0.0 0.0
04:24 10.9 8.0 82 1007.6 5.4 NW 7.6 0.0 0.0
04:25 10.9 8.0 82 1007.3 6.9 NW 7.6 0.0 0.0
04:26 10.9 8.0 82 1007.5 6.0 W 6.9 0.0 0.0
04:27 10.9 8.0 82 1007.5 6.0 SW 7.6 0.0 0.0
04:28 10.9 8.0 82 1007.4 5.4 ESE 7.6 0.0 0.0
04:30 10.9 8.0 82 1007.6 3.8 W 7.6 0.0 0.0
04:31 10.9 8.0 82 1007.5 3.8 W 7.6 0.0 0.0
04:32 10.8 7.9 82 1007.5 6.0 N 7.6 0.0 0.0
04:33 10.8 7.9 82 1007.3 3.8 N 7.6 0.0 0.0
04:34 10.8 7.9 82 1007.6 3.8 SW 7.6 0.0 0.0
04:35 10.8 7.9 82 1007.4 6.9 W 7.6 0.0 0.0
04:36 10.8 7.9 82 1007.5 4.5 NW 7.6 0.0 0.0
04:37 10.8 7.9 82 1007.5 4.5 W 6.9 0.0 0.0
04:38 10.8 7.9 82 1007.5 3.8 N 6.9 0.0 0.0
04:39 10.8 7.9 82 1007.5 5.4 NW 6.9 0.0 0.0
04:40 10.8 7.9 82 1007.4 9.2 N 9.2 0.0 0.0
04:41 10.8 7.9 82 1007.6 6.0 W 9.2 0.0 0.0
04:42 10.8 7.9 82 1007.6 5.4 NW 9.2 0.0 0.0
04:44 10.8 7.9 82 1007.5 4.5 W 9.2 0.0 0.0
04:45 10.8 7.9 82 1007.7 3.1 NW 9.2 0.0 0.0
04:46 10.8 7.9 82 1007.4 3.1 NW 9.2 0.0 0.0
04:47 10.9 8.0 82 1007.4 5.4 W 9.2 0.0 0.0
04:48 10.9 8.0 82 1007.3 3.1 W 9.2 0.0 0.0
04:49 10.9 8.0 82 1007.3 3.1 W 9.2 0.0 0.0
04:50 10.9 8.0 82 1007.6 5.4 NW 9.2 0.0 0.0
04:51 10.9 8.0 82 1007.5 4.5 NW 6.0 0.0 0.0
04:52 10.9 8.0 82 1007.6 4.5 NW 6.0 0.0 0.0
04:53 10.9 8.0 82 1007.4 3.1 NW 6.0 0.0 0.0
04:54 10.9 8.0 82 1007.4 3.1 NW 6.0 0.0 0.0
04:55 10.9 8.0 82 1007.3 2.2 NW 6.0 0.0 0.0
04:56 10.9 8.0 82 1007.6 4.5 NW 6.0 0.0 0.0
04:57 10.8 7.9 82 1007.4 3.1 NW 6.0 0.0 0.0
04:59 10.8 7.9 82 1007.5 2.2 W 6.0 0.0 0.0
05:00 10.8 7.9 82 1007.7 6.9 W 6.9 0.0 0.0
05:01 10.8 7.9 82 1007.6 6.9 W 6.9 0.0 0.0
05:02 10.8 7.9 82 1007.4 6.9 W 6.9 0.0 0.0
05:03 10.8 7.9 82 1007.7 6.9 W 6.9 0.0 0.0
05:04 10.8 7.9 82 1007.5 6.9 W 6.9 0.0 0.0
05:05 10.8 7.9 82 1007.7 6.9 W 6.9 0.0 0.0
05:06 10.8 7.9 82 1007.5 6.9 W 6.9 0.0 0.0
05:07 10.8 7.9 82 1007.7 3.8 NNE 6.9 0.0 0.0
05:08 10.8 7.9 82 1007.6 5.4 W 6.9 0.0 0.0
05:09 10.8 7.9 82 1007.6 3.8 N 6.9 0.0 0.0
05:10 10.8 7.9 82 1007.6 4.5 NW 6.9 0.0 0.0
05:11 10.8 7.9 82 1007.8 6.0 W 6.9 0.0 0.0
05:13 10.7 7.6 81 1007.8 6.9 N 6.9 0.0 0.0
05:14 10.7 7.6 81 1007.6 5.4 W 6.9 0.0 0.0
05:15 10.7 7.6 81 1007.7 6.0 N 6.9 0.0 0.0
05:16 10.7 7.6 81 1007.6 5.4 WNW 6.9 0.0 0.0
05:17 10.7 7.6 81 1007.6 5.4 N 6.9 0.0 0.0
05:18 10.7 7.6 81 1007.6 5.4 N 6.9 0.0 0.0
05:19 10.6 7.5 81 1007.7 9.2 N 9.2 0.0 0.0
05:20 10.6 7.5 81 1007.7 3.8 NW 9.2 0.0 0.0
05:21 10.6 7.5 81 1007.7 4.5 N 9.2 0.0 0.0
05:22 10.6 7.5 81 1007.6 3.8 N 9.2 0.0 0.0
05:23 10.5 7.4 81 1007.6 3.8 N 9.2 0.0 0.0
05:24 10.5 7.4 81 1007.7 3.1 NW 9.2 0.0 0.0
05:25 10.5 7.4 81 1007.6 5.4 NW 9.2 0.0 0.0
05:26 10.5 7.2 80 1007.5 3.1 NW 9.2 0.0 0.0
05:28 10.4 7.1 80 1007.5 3.8 NW 9.2 0.0 0.0
05:29 10.4 7.1 80 1007.6 5.4 NW 5.4 0.0 0.0
05:30 10.3 7.0 80 1007.6 8.3 N 8.3 0.0 0.0
05:31 10.4 7.1 80 1007.5 6.9 NE 8.3 0.0 0.0
05:32 10.3 7.0 80 1007.6 6.0 NW 8.3 0.0 0.0
05:33 10.3 7.0 80 1007.5 6.0 SW 8.3 0.0 0.0
05:34 10.3 7.0 80 1007.4 4.5 NE 8.3 0.0 0.0
05:35 10.3 7.0 80 1007.6 4.5 N 8.3 0.0 0.0
05:36 10.3 7.0 80 1007.5 4.5 NW 8.3 0.0 0.0
05:37 10.3 7.0 80 1007.4 3.1 E 8.3 0.0 0.0
05:38 10.3 7.0 80 1007.5 2.2 NW 8.3 0.0 0.0
05:39 10.3 7.0 80 1007.8 2.2 NW 8.3 0.0 0.0
05:40 10.3 7.2 81 1007.6 3.8 W 8.3 0.0 0.0
05:42 10.3 7.2 81 1007.7 3.1 NW 6.0 0.0 0.0
05:43 10.3 7.2 81 1007.6 2.2 NW 4.5 0.0 0.0
05:44 10.3 7.2 81 1007.5 4.5 N 4.5 0.0 0.0
05:45 10.3 7.2 81 1007.6 3.8 WSW 4.5 0.0 0.0
05:46 10.3 7.2 81 1007.6 3.8 WSW 4.5 0.0 0.0
05:47 10.3 7.2 81 1007.6 2.2 W 4.5 0.0 0.0
05:48 10.3 7.2 81 1007.6 3.8 NW 4.5 0.0 0.0
05:49 10.3 7.2 81 1007.7 3.1 W 4.5 0.0 0.0
05:50 10.4 7.3 81 1007.5 3.1 W 4.5 0.0 0.0
05:51 10.4 7.3 81 1007.6 2.2 W 4.5 0.0 0.0
05:52 10.4 7.3 81 1007.7 3.1 SW 4.5 0.0 0.0
05:53 10.4 7.3 81 1007.8 3.1 NW 4.5 0.0 0.0
05:54 10.5 7.4 81 1007.6 3.1 N 4.5 0.0 0.0
05:56 10.5 7.4 81 1007.7 4.5 NW 4.5 0.0 0.0
05:57 10.5 7.4 81 1007.6 6.9 NW 6.9 0.0 0.0
05:58 10.5 7.4 81 1007.7 5.4 NW 6.9 0.0 0.0
05:59 10.5 7.4 81 1007.6 3.8 W 6.9 0.0 0.0
06:00 10.5 7.4 81 1007.6 3.1 NW 6.9 0.0 0.0
06:01 10.5 7.4 81 1007.6 3.1 NW 6.9 0.0 0.0
06:02 10.5 7.4 81 1007.4 3.1 SW 6.9 0.0 0.0
06:03 10.5 7.4 81 1007.6 3.8 N 6.9 0.0 0.0
06:04 10.5 7.4 81 1007.7 3.1 NW 6.9 0.0 0.0
06:05 10.5 7.4 81 1007.7 3.1 W 6.9 0.0 0.0
06:06 10.5 7.4 81 1007.8 2.2 W 6.9 0.0 0.0
06:07 10.5 7.4 81 1007.4 2.2 SW 6.9 0.0 0.0
06:08 10.5 7.4 81 1007.4 2.2 NW 5.4 0.0 0.0
06:10 10.5 7.4 81 1007.7 3.8 NW 5.4 0.0 0.0
06:11 10.5 7.4 81 1007.6 3.8 W 5.4 0.0 0.0
06:12 10.5 7.4 81 1007.5 2.2 W 5.4 0.0 0.0
06:13 10.5 7.4 81 1007.7 2.2 N 5.4 0.0 0.0
06:14 10.6 7.5 81 1007.6 3.1 W 5.4 0.0 0.0
06:15 10.6 7.5 81 1007.6 3.8 E 5.4 0.0 0.0
06:16 10.6 7.5 81 1007.5 2.2 NW 5.4 0.0 0.0
06:17 10.6 7.5 81 1007.7 6.0 NW 6.0 0.0 0.0
06:18 10.6 7.5 81 1007.5 4.5 W 6.0 0.0 0.0
06:19 10.6 7.5 81 1007.7 3.8 WNW 6.0 0.0 0.0
06:20 10.7 7.6 81 1007.8 3.8 WNW 6.0 0.0 0.0
06:21 10.7 7.6 81 1007.5 6.0 W 6.0 0.0 0.0
06:22 10.7 7.6 81 1007.7 4.5 E 6.0 0.0 0.0
06:24 10.8 7.7 81 1007.7 3.8 SW 6.0 0.0 0.0
06:25 10.8 7.7 81 1007.5 3.1 N 6.0 0.0 0.0
06:26 10.8 7.7 81 1007.6 5.4 NW 6.0 0.0 0.0
06:27 10.8 7.7 81 1007.3 7.6 W 7.6 0.0 0.0
06:28 10.8 7.7 81 1007.6 4.5 W 7.6 0.0 0.0
06:29 10.8 7.7 81 1007.6 4.5 W 7.6 0.0 0.0
06:30 10.8 7.7 81 1007.6 4.5 NW 7.6 0.0 0.0
06:31 10.8 7.7 81 1007.7 3.8 NNE 7.6 0.0 0.0
06:32 10.8 7.7 81 1007.8 5.4 N 7.6 0.0 0.0
06:33 10.8 7.7 81 1007.6 5.4 SW 7.6 0.0 0.0
06:34 10.8 7.7 81 1007.7 6.0 S 7.6 0.0 0.0
06:35 10.8 7.5 80 1007.5 6.9 N 7.6 0.0 0.0
06:36 10.8 7.5 80 1007.8 6.9 NW 7.6 0.0 0.0
06:37 10.8 7.5 80 1007.4 6.9 W 6.9 0.0 0.0
06:39 10.8 7.5 80 1007.7 5.4 WNW 6.9 0.0 0.0
06:40 10.8 7.5 80 1007.6 4.5 W 7.6 0.0 0.0
06:41 10.8 7.5 80 1007.6 3.8 NW 7.6 0.0 0.0
06:42 10.8 7.5 80 1007.6 9.2 W 9.2 0.0 0.0
06:43 10.8 7.5 80 1007.6 3.1 NW 9.2 0.0 0.0
06:44 10.9 7.8 81 1007.5 3.8 NW 9.2 0.0 0.0
06:45 10.9 7.8 81 1007.6 4.5 W 9.2 0.0 0.0
06:46 10.9 7.8 81 1007.6 5.4 NW 9.2 0.0 0.0
06:47 10.9 7.8 81 1007.6 6.9 S 9.2 0.0 0.0
06:48 11.0 7.9 81 1007.8 3.8 SW 9.2 0.0 0.0
06:49 11.0 7.9 81 1007.5 3.8 NW 9.2 0.0 0.0
06:50 11.0 7.9 81 1007.7 5.4 W 9.2 0.0 0.0
06:51 11.1 8.0 81 1007.5 3.8 W 9.2 0.0 0.0
06:53 11.1 8.0 81 1007.6 6.9 SW 6.9 0.0 0.0
06:54 11.1 7.8 80 1007.7 6.0 SSW 6.9 0.0 0.0
06:55 11.1 7.8 80 1007.6 8.3 NW 8.3 0.0 0.0
06:56 11.1 7.8 80 1007.5 6.0 NW 8.3 0.0 0.0
06:57 11.1 7.8 80 1007.7 6.0 NW 8.3 0.0 0.0
06:58 11.1 7.8 80 1007.7 6.0 NW 8.3 0.0 0.0
06:59 11.1 7.8 80 1007.8 6.0 N 8.3 0.0 0.0
07:00 11.1 7.8 80 1007.5 6.9 E 8.3 0.0 0.0
07:01 11.1 7.8 80 1007.5 6.9 E 8.3 0.0 0.0
07:02 11.1 7.8 80 1007.7 6.9 E 8.3 0.0 0.0
07:03 11.1 7.8 80 1007.5 6.9 E 8.3 0.0 0.0
07:04 11.1 7.8 80 1007.5 6.9 E 8.3 0.0 0.0
07:05 11.1 7.8 80 1007.7 6.9 E 8.3 0.0 0.0
07:06 11.2 7.7 79 1007.7 3.1 WSW 10.7 0.0 0.0
07:08 11.2 7.7 79 1007.8 6.0 NW 10.7 0.0 0.0
07:09 11.2 7.7 79 1007.6 8.3 SW 10.7 0.0 0.0
07:10 11.2 7.7 79 1007.9 5.4 NW 10.7 0.0 0.0
07:11 11.2 7.7 79 1007.5 5.4 SE 10.7 0.0 0.0
07:12 11.2 7.7 79 1007.7 3.1 N 10.7 0.0 0.0
07:13 11.2 7.7 79 1007.7 3.1 W 10.7 0.0 0.0
07:14 11.2 7.7 79 1007.7 3.1 NW 10.7 0.0 0.0
07:15 11.2 7.7 79 1007.8 5.4 W 10.7 0.0 0.0
07:16 11.3 7.8 79 1007.8 7.6 W 8.3 0.0 0.0
07:17 11.3 7.8 79 1007.7 7.6 NW 8.3 0.0 0.0
07:18 11.3 7.8 79 1007.8 7.6 WNW 8.3 0.0 0.0
07:19 11.3 7.8 79 1007.7 9.2 W 9.2 0.0 0.0
07:20 11.4 7.9 79 1007.7 6.9 W 9.2 0.0 0.0
07:22 11.4 7.9 79 1007.6 8.3 NW 9.8 0.0 0.0
07:23 11.5 8.0 79 1008.0 4.5 N 9.8 0.0 0.0
07:24 11.6 8.3 80 1007.7 3.8 W 9.8 0.0 0.0
07:25 11.6 8.3 80 1007.8 9.8 W 9.8 0.0 0.0
07:26 11.7 8.4 80 1007.8 8.3 SW 9.8 0.0 0.0
07:27 11.7 8.4 80 1007.8 8.3 SW 9.8 0.0 0.0
07:28 11.7 8.4 80 1007.9 6.9 W 9.8 0.0 0.0
07:29 11.7 8.4 80 1007.9 6.9 W 9.8 0.0 0.0
07:30 11.8 8.5 80 1007.9 13.0 NW 13.0 0.0 0.0
07:31 11.9 8.6 80 1007.9 8.3 WSW 13.0 0.0 0.0
07:32 11.9 8.6 80 1007.8 8.3 NW 13.0 0.0 0.0
07:33 11.9 8.6 80 1007.6 9.2 W 13.0 0.0 0.0
07:34 11.9 8.6 80 1007.7 6.0 NW 13.0 0.0 0.0
07:35 12.0 8.5 79 1007.8 9.2 SW 13.0 0.0 0.0
07:37 12.0 8.5 79 1007.7 9.2 W 13.0 0.0 0.0
07:38 12.0 8.3 78 1007.7 6.0 SW 13.0 0.0 0.0
07:39 12.0 8.3 78 1007.7 6.9 WSW 13.0 0.0 0.0
07:40 12.0 8.3 78 1007.8 6.0 N 10.7 0.0 0.0
07:41 12.0 8.3 78 1007.8 6.0 N 10.7 0.0 0.0
07:42 12.0 8.3 78 1007.8 10.7 W 10.7 0.0 0.0
07:43 12.1 8.4 78 1007.8 6.9 SW 10.7 0.0 0.0
07:44 12.1 8.4 78 1007.8 5.4 N 10.7 0.0 0.0
07:45 12.1 8.4 78 1007.5 12.1 N 12.1 0.0 0.0
07:46 12.1 8.4 78 1007.8 8.3 N 12.1 0.0 0.0
07:47 12.1 8.4 78 1007.8 6.9 SW 12.1 0.0 0.0
07:48 12.2 8.5 78 1007.7 7.6 W 12.1 0.0 0.0
07:49 12.2 8.5 78 1007.8 8.3 NW 12.1 0.0 0.0
07:51 12.2 8.5 78 1007.8 9.2 N 12.1 0.0 0.0
07:52 12.2 8.5 78 1007.7 6.0 W 12.1 0.0 0.0
07:53 12.2 8.3 77 1007.7 9.2 SW 12.1 0.0 0.0
07:54 12.2 8.3 77 1007.8 9.2 W 12.1 0.0 0.0
07:55 12.2 8.3 77 1007.8 7.6 W 12.1 0.0 0.0
07:56 12.2 8.3 77 1007.8 6.0 N 9.2 0.0 0.0
07:57 12.2 8.3 77 1007.9 6.0 W 9.2 0.0 0.0
07:58 12.2 8.3 77 1007.9 6.0 S 9.2 0.0 0.0
07:59 12.2 8.3 77 1007.8 5.4 NE 9.2 0.0 0.0
08:00 12.2 8.3 77 1007.6 6.0 NW 9.2 0.0 0.0
08:01 12.2 8.3 77 1007.5 6.0 NW 9.2 0.0 0.0
08:02 12.2 8.3 77 1007.7 6.0 NW 9.2 0.0 0.0
08:03 12.2 8.3 77 1007.9 6.0 NW 9.2 0.0 0.0
08:05 12.4 8.5 77 1007.8 13.0 W 13.0 0.0 0.0
08:06 12.4 8.7 78 1007.9 8.3 NW 13.0 0.0 0.0
08:07 12.5 8.0 74 1007.8 8.3 W 13.0 0.0 0.0
08:08 12.5 8.0 74 1007.7 3.8 NW 13.0 0.0 0.0
08:09 12.5 8.0 74 1007.8 7.6 W 13.0 0.0 0.0
08:10 12.5 8.0 74 1007.8 7.6 W 13.0 0.0 0.0
08:11 12.5 8.0 74 1007.8 7.6 S 13.0 0.0 0.0
08:12 12.6 8.1 74 1007.7 8.3 W 13.0 0.0 0.0
08:13 12.6 8.1 74 1007.6 9.2 S 13.0 0.0 0.0
08:14 12.6 8.1 74 1007.8 9.2 SW 13.0 0.0 0.0
08:15 12.6 8.1 74 1007.7 11.4 NNE 13.0 0.0 0.0
08:16 12.7 8.2 74 1007.7 7.6 N 11.4 0.0 0.0
08:17 12.7 8.2 74 1007.6 10.7 WNW 11.4 0.0 0.0
08:18 12.7 8.0 73 1007.8 9.8 W 11.4 0.0 0.0
08:20 12.8 8.1 73 1007.7 6.9 NW 11.4 0.0 0.0
08:21 12.8 8.1 73 1007.7 6.0 SW 11.4 0.0 0.0
08:22 12.9 8.2 73 1007.7 6.0 NW 11.4 0.0 0.0
08:23 12.9 8.2 73 1007.7 10.7 WSW 11.4 0.0 0.0
08:24 12.9 8.2 73 1007.8 8.3 NW 11.4 0.0 0.0
08:25 12.9 8.2 73 1007.8 8.3 NW 11.4 0.0 0.0
08:26 12.9 8.2 73 1007.9 9.8 W 10.7 0.0 0.0
08:27 13.0 8.3 73 1007.8 6.9 W 10.7 0.0 0.0
08:28 13.0 8.3 73 1007.7 6.0 NW 10.7 0.0 0.0
08:29 13.0 8.3 73 1007.7 6.9 NW 10.7 0.0 0.0
08:30 13.0 8.3 73 1007.8 6.0 W 10.7 0.0 0.0
08:31 13.0 8.1 72 1007.8 6.0 NW 10.7 0.0 0.0
08:32 13.0 8.1 72 1007.7 9.2 W 10.7 0.0 0.0
08:34 13.0 8.1 72 1007.7 5.4 SW 9.8 0.0 0.0
08:35 13.0 8.1 72 1007.6 6.9 SW 9.8 0.0 0.0
08:36 13.0 8.1 72 1007.8 9.2 W 9.8 0.0 0.0
08:37 13.0 8.1 72 1007.6 9.2 WNW 9.2 0.0 0.0
08:38 13.0 8.1 72 1007.5 10.7 W 10.7 0.0 0.0
08:39 13.0 8.1 72 1007.7 9.2 SW 10.7 0.0 0.0
08:40 12.9 8.0 72 1007.7 9.2 NW 10.7 0.0 0.0
08:41 12.9 8.0 72 1007.7 9.2 SW 10.7 0.0 0.0
08:42 12.9 8.0 72 1007.7 7.6 W 10.7 0.0 0.0
08:43 12.9 8.0 72 1007.8 6.9 SSW 12.1 0.0 0.0
08:44 12.9 8.0 72 1008.0 9.8 SW 12.1 0.0 0.0
08:45 12.9 8.0 72 1007.9 9.8 N 12.1 0.0 0.0
08:46 12.9 8.0 72 1007.9 7.6 NW 12.1 0.0 0.0
08:47 12.9 8.0 72 1007.7 9.2 NW 13.0 0.0 0.0
08:49 12.9 8.0 72 1007.9 6.0 WSW 13.0 0.0 0.0
08:50 12.9 8.0 72 1007.9 6.0 W 13.0 0.0 0.0
08:51 12.9 8.0 72 1008.0 5.4 W 13.0 0.0 0.0
08:52 12.8 7.9 72 1007.9 7.6 W 13.0 0.0 0.0
08:53 12.8 7.9 72 1008.0 8.3 SW 13.0 0.0 0.0
08:54 12.8 7.9 72 1007.9 3.8 SW 13.0 0.0 0.0
08:55 12.8 7.9 72 1007.9 9.2 W 13.0 0.0 0.0
08:56 12.8 7.9 72 1008.0 9.2 NW 13.0 0.0 0.0
08:57 12.8 7.9 72 1007.8 6.9 W 9.8 0.0 0.0
08:58 12.8 7.9 72 1007.8 10.7 NE 10.7 0.0 0.0
08:59 12.7 7.8 72 1007.8 11.4 WSW 11.4 0.0 0.0
09:00 12.7 7.8 72 1007.8 12.1 N 12.1 0.0 0.0
09:01 12.7 7.8 72 1007.9 12.1 N 12.1 0.0 0.0
09:02 12.7 7.8 72 1007.8 12.1 N 12.1 0.0 0.0
09:03 12.7 7.8 72 1007.9 9.8 W 12.1 0.0 0.0
09:05 12.7 7.8 72 1007.8 10.7 W 12.1 0.0 0.0
09:06 12.7 7.8 72 1007.9 10.7 W 12.1 0.0 0.0
09:07 12.7 7.8 72 1007.9 11.4 SE 12.1 0.0 0.0
09:08 12.7 7.8 72 1008.0 19.7 W 19.7 0.0 0.0
09:09 12.7 7.8 72 1008.1 19.7 W 19.7 0.0 0.0
09:10 12.7 7.8 72 1008.1 19.7 W 19.7 0.0 0.0
09:11 12.7 7.8 72 1007.8 10.7 W 19.7 0.0 0.0
09:12 12.7 7.8 72 1007.7 8.3 NW 19.7 0.0 0.0
09:13 12.8 7.9 72 1007.8 9.2 NW 19.7 0.0 0.0
09:14 12.8 7.9 72 1007.8 10.7 NW 19.7 0.0 0.0
09:15 12.8 7.9 72 1007.8 8.3 NW 19.7 0.0 0.0
09:16 12.9 7.8 71 1007.8 9.2 N 19.7 0.0 0.0
09:17 12.9 7.8 71 1008.1 7.6 NW 19.7 0.0 0.0
09:18 13.1 8.0 71 1007.8 11.4 SW 19.7 0.0 0.0
09:19 13.1 8.0 71 1007.9 11.4 SW 19.7 0.0 0.0
09:21 13.5 8.3 71 1008.1 13.6 NW 13.6 0.0 0.0
09:22 13.6 8.4 71 1007.7 12.1 W 13.6 0.0 0.0
09:23 13.7 8.3 70 1007.8 9.2 NW 13.6 0.0 0.0
09:24 13.9 8.5 70 1007.8 11.4 NW 13.6 0.0 0.0
09:25 13.9 8.5 70 1007.8 12.1 S 13.6 0.0 0.0
09:26 13.9 8.5 70 1007.8 12.1 S 13.6 0.0 0.0
09:27 13.9 8.5 70 1007.8 11.4 NW 13.6 0.0 0.0
09:28 13.9 8.5 70 1007.9 11.4 SW 13.6 0.0 0.0
09:29 13.8 8.4 70 1007.7 9.8 NE 13.6 0.0 0.0
09:30 13.7 8.3 70 1007.6 13.0 N 13.6 0.0 0.0
09:31 13.5 8.1 70 1007.8 9.8 N 13.6 0.0 0.0
09:32 13.4 8.0 70 1007.5 13.0 NW 13.0 0.0 0.0
09:33 13.4 8.0 70 1007.6 13.0 W 13.0 0.0 0.0
09:34 13.3 7.9 70 1007.7 6.0 W 13.0 0.0 0.0
09:35 13.2 7.9 70 1007.7 11.4 WSW 13.0 0.0 0.0
09:36 13.2 7.9 70 1007.7 12.1 SW 13.0 0.0 0.0
09:38 13.2 7.9 70 1007.6 6.9 NW 13.0 0.0 0.0
09:39 13.1 7.8 70 1007.5 15.9 W 15.9 0.0 0.0
09:40 13.1 7.8 70 1007.3 15.2 W 15.9 0.0 0.0
09:41 13.1 7.8 70 1007.6 15.2 NW 15.9 0.0 0.0
09:42 13.1 7.8 70 1007.7 10.7 S 15.9 0.0 0.0
09:43 13.1 7.8 70 1007.6 9.2 SW 15.9 0.0 0.0
09:44 13.1 7.8 70 1007.5 9.8 NW 15.9 0.0 0.0
09:45 13.0 7.7 70 1007.6 9.8 W 15.9 0.0 0.0
09:46 13.0 7.7 70 1007.5 9.8 N 15.9 0.0 0.0
09:47 13.0 7.7 70 1007.8 9.8 W 15.9 0.0 0.0
09:48 13.0 7.7 70 1007.6 9.8 NW 15.9 0.0 0.0
09:49 13.0 7.7 70 1007.7 14.5 W 15.9 0.0 0.0
09:50 13.0 7.9 71 1007.7 9.8 W 15.9 0.0 0.0
09:51 13.0 7.9 71 1007.7 13.6 W 15.9 0.0 0.0
09:53 12.9 7.8 71 1007.5 13.0 N 15.9 0.0 0.0
09:54 12.9 7.8 71 1007.7 6.9 E 15.9 0.0 0.0
09:55 12.9 7.8 71 1007.6 5.4 W 15.9 0.0 0.0
09:56 12.9 7.8 71 1007.6 12.1 N 15.9 0.0 0.0
09:57 12.9 7.8 71 1007.5 12.1 N 14.5 0.0 0.0
09:58 12.9 7.8 71 1007.5 14.5 NW 14.5 0.0 0.0
09:59 12.9 7.8 71 1007.7 9.8 NW 14.5 0.0 0.0
10:00 12.9 7.8 71 1007.6 9.8 NW 14.5 0.0 0.0
10:01 12.9 7.8 71 1007.7 9.8 NW 14.5 0.0 0.0
10:02 12.9 7.8 71 1007.5 9.8 NW 14.5 0.0 0.0
10:03 12.8 7.9 72 1007.5 14.5 W 14.5 0.0 0.0
10:04 12.8 7.9 72 1007.5 14.5 W 14.5 0.0 0.0
10:05 12.8 7.9 72 1007.7 7.6 W 14.5 0.0 0.0
10:06 12.8 7.9 72 1007.6 10.7 SW 14.5 0.0 0.0
10:08 12.7 7.6 71 1007.6 9.8 SW 14.5 0.0 0.0
10:09 12.7 7.6 71 1007.6 9.8 SW 14.5 0.0 0.0
10:10 12.7 7.6 71 1007.7 9.8 SW 14.5 0.0 0.0
10:11 12.7 7.6 71 1007.6 9.8 SW 14.5 0.0 0.0
10:12 12.7 7.6 71 1007.7 13.6 N 15.2 0.0 0.0
10:13 12.7 7.6 71 1007.4 13.6 N 15.2 0.0 0.0
10:14 12.7 7.6 71 1007.4 13.6 N 15.2 0.0 0.0
10:15 12.6 7.5 71 1007.6 9.2 NW 15.2 0.0 0.0
10:16 12.7 7.6 71 1007.2 6.9 N 15.2 0.0 0.0
10:17 12.7 7.6 71 1007.5 9.2 N 15.2 0.0 0.0
10:18 12.7 7.6 71 1007.5 9.2 N 15.2 0.0 0.0
10:19 12.7 7.6 71 1007.5 13.0 NW 15.2 0.0 0.0
10:20 12.7 7.6 71 1007.5 11.4 W 15.2 0.0 0.0
10:21 12.7 7.6 71 1007.3 11.4 W 15.2 0.0 0.0
10:22 12.7 7.6 71 1007.6 6.0 N 13.6 0.0 0.0
10:24 12.7 7.6 71 1007.6 8.3 NW 13.6 0.0 0.0
10:25 12.7 7.6 71 1007.4 8.3 NW 13.0 0.0 0.0
10:26 12.7 7.6 71 1007.5 8.3 NW 13.0 0.0 0.0
10:27 12.7 7.8 72 1007.5 6.9 NW 13.0 0.0 0.0
10:28 12.7 7.6 71 1007.5 9.8 NE 13.0 0.0 0.0
10:29 12.7 7.6 71 1007.5 9.8 NW 11.4 0.0 0.0
10:30 12.7 7.6 71 1007.5 9.8 NW 11.4 0.0 0.0
10:31 12.7 7.6 71 1007.6 5.4 NW 9.8 0.0 0.0
10:32 12.8 7.7 71 1007.6 6.9 NW 9.8 0.0 0.0
10:33 12.8 7.7 71 1007.5 6.9 W 9.8 0.0 0.0
10:34 12.9 7.8 71 1007.5 9.8 NW 9.8 0.0 0.0
10:35 12.9 7.8 71 1007.4 9.8 W 9.8 0.0 0.0
10:36 12.9 7.8 71 1007.5 10.7 E 10.7 0.0 0.0
10:37 12.8 7.7 71 1007.3 8.3 W 10.7 0.0 0.0
10:39 12.8 7.7 71 1007.4 8.3 NW 10.7 0.0 0.0
10:40 12.8 7.7 71 1007.5 8.3 SW 10.7 0.0 0.0
10:41 12.8 7.7 71 1007.6 11.4 NW 11.4 0.0 0.0
10:42 12.9 7.8 71 1007.5 8.3 WNW 11.4 0.0 0.0
10:43 12.9 7.8 71 1007.5 8.3 WNW 11.4 0.0 0.0
10:44 13.0 7.9 71 1007.6 11.4 W 11.4 0.0 0.0
10:45 13.0 7.9 71 1007.6 11.4 W 11.4 0.0 0.0
10:46 13.1 8.0 71 1007.5 12.1 W 12.1 0.0 0.0
10:47 13.1 8.0 71 1007.6 12.1 W 12.1 0.0 0.0
10:48 13.1 8.0 71 1007.8 12.1 W 12.1 0.0 0.0
10:49 13.1 7.8 70 1007.8 5.4 SE 12.1 0.0 0.0
10:50 13.2 7.9 70 1007.8 12.1 NW 12.1 0.0 0.0
10:51 13.2 7.9 70 1007.7 8.3 S 12.1 0.0 0.0
10:52 13.2 7.9 70 1007.8 8.3 S 12.1 0.0 0.0
10:53 13.2 7.9 70 1007.6 14.5 W 14.5 0.0 0.0
10:55 13.1 7.5 69 1007.5 10.7 S 14.5 0.0 0.0
10:56 13.1 7.5 69 1007.6 7.6 SW 14.5 0.0 0.0
10:57 13.1 7.5 69 1007.7 7.6 SW 14.5 0.0 0.0
10:58 13.0 7.4 69 1007.6 13.6 NW 14.5 0.0 0.0
10:59 13.0 7.4 69 1007.5 13.6 NW 14.5 0.0 0.0
11:00 13.0 7.4 69 1007.6 13.6 NW 14.5 0.0 0.0
11:01 13.0 7.4 69 1007.7 13.6 NW 14.5 0.0 0.0
11:02 13.0 7.4 69 1007.6 13.6 NW 14.5 0.0 0.0
11:03 13.0 7.7 70 1007.9 10.7 SE 14.5 0.0 0.0
11:04 13.0 7.7 70 1007.8 9.2 NW 13.6 0.0 0.0
11:05 13.0 7.7 70 1007.8 9.2 N 13.6 0.0 0.0
11:06 13.0 7.7 70 1007.9 13.6 NW 13.6 0.0 0.0
11:07 13.0 7.7 70 1007.8 13.6 NW 13.6 0.0 0.0
11:09 13.1 7.8 70 1007.7 10.7 NW 13.6 0.0 0.0
11:10 13.1 7.8 70 1007.6 10.7 SW 13.6 0.0 0.0
11:11 13.1 7.8 70 1007.8 10.7 SW 13.6 0.0 0.0
11:12 13.0 7.2 68 1007.5 13.6 SW 13.6 0.0 0.0
11:13 13.0 7.2 68 1007.5 13.6 SW 13.6 0.0 0.0
11:14 13.0 7.2 68 1007.5 13.6 SW 13.6 0.0 0.0
11:15 13.0 7.4 69 1007.6 8.3 W 13.6 0.0 0.0
11:16 13.1 7.5 69 1007.6 13.0 SW 13.6 0.0 0.0
11:17 13.1 7.5 69 1007.3 13.0 SW 13.6 0.0 0.0
11:18 13.2 7.4 68 1007.5 6.9 S 13.6 0.0 0.0
11:19 13.2 7.4 68 1007.5 5.4 NW 13.6 0.0 0.0
11:20 13.2 7.4 68 1007.4 9.8 NW 13.6 0.0 0.0
11:21 13.3 7.7 69 1007.3 10.7 W 13.6 0.0 0.0
11:22 13.4 7.8 69 1007.4 7.6 W 13.6 0.0 0.0
11:23 13.4 8.0 70 1007.4 5.4 NW 13.6 0.0 0.0
11:24 13.4 8.0 70 1007.5 5.4 NW 13.6 0.0 0.0
11:25 13.5 7.9 69 1007.5 9.8 SW 13.0 0.0 0.0
11:26 13.5 7.9 69 1007.4 9.8 SW 13.0 0.0 0.0
11:27 13.5 7.7 68 1007.2 15.9 N 15.9 0.0 0.0
11:29 13.5 7.5 67 1007.4 11.4 N 15.9 0.0 0.0
11:30 13.6 7.6 67 1007.5 6.9 S 15.9 0.0 0.0
11:31 13.7 7.5 66 1007.4 8.3 W 15.9 0.0 0.0
11:32 13.8 7.6 66 1007.4 8.3 NW 15.9 0.0 0.0
11:33 13.8 7.6 66 1007.5 8.3 NW 15.9 0.0 0.0
11:34 13.9 7.7 66 1007.5 6.0 NW 15.9 0.0 0.0
11:35 13.9 7.7 66 1007.5 6.0 NW 15.9 0.0 0.0
11:36 13.9 7.7 66 1007.4 6.0 NW 15.9 0.0 0.0
11:37 14.0 7.8 66 1007.4 9.8 NW 15.9 0.0 0.0
11:38 14.0 7.8 66 1007.5 13.6 NW 13.6 0.0 0.0
11:39 14.0 7.8 66 1007.5 10.7 SW 13.6 0.0 0.0
11:40 14.0 7.8 66 1007.5 10.7 SW 13.6 0.0 0.0
11:41 14.0 7.5 65 1007.2 13.0 NW 13.6 0.0 0.0
11:42 14.0 7.5 65 1007.4 13.0 SE 13.6 0.0 0.0
11:44 14.0 7.5 65 1007.5 14.5 W 14.5 0.0 0.0
11:45 13.8 7.1 64 1007.3 11.4 SW 14.5 0.0 0.0
11:46 13.8 7.1 64 1007.6 12.1 W 14.5 0.0 0.0
11:47 13.7 7.0 64 1007.6 14.5 W 14.5 0.0 0.0
11:48 13.6 6.9 64 1007.5 12.1 W 14.5 0.0 0.0
11:49 13.6 6.9 64 1007.5 12.1 W 14.5 0.0 0.0
11:50 13.6 6.9 64 1007.3 11.4 W 14.5 0.0 0.0
11:51 13.6 7.1 65 1007.6 9.2 W 14.5 0.0 0.0
11:52 13.6 7.4 66 1007.6 6.9 S 14.5 0.0 0.0
11:53 13.7 7.5 66 1007.3 13.6 SW 14.5 0.0 0.0
11:54 13.7 7.5 66 1007.4 13.6 WNW 14.5 0.0 0.0
11:55 13.8 7.6 66 1007.7 13.0 W 14.5 0.0 0.0
11:56 13.8 7.6 66 1007.6 11.4 W 14.5 0.0 0.0
11:58 13.9 7.7 66 1007.5 9.8 SW 13.6 0.0 0.0
11:59 13.9 7.7 66 1007.7 10.7 S 13.6 0.0 0.0
12:00 13.8 7.6 66 1007.6 10.7 NW 13.6 0.0 0.0
12:01 13.8 7.6 66 1007.6 10.7 NW 13.6 0.0 0.0
12:02 13.7 7.5 66 1007.5 12.1 NW 13.6 0.0 0.0
12:04 13.6 7.4 66 1007.6 6.9 N 13.0 0.0 0.0
12:05 13.6 7.4 66 1007.6 9.8 NW 13.0 0.0 0.0
12:06 13.6 7.4 66 1007.6 9.8 W 12.1 0.0 0.0
12:07 13.4 7.2 66 1007.6 12.1 NW 13.0 0.0 0.0
12:08 13.4 7.4 67 1007.6 11.4 W 13.0 0.0 0.0
12:09 13.3 7.3 67 1007.7 11.4 SW 13.0 0.0 0.0
12:10 13.3 7.3 67 1007.6 10.7 NW 13.0 0.0 0.0
12:11 13.2 7.2 67 1007.7 10.7 SW 13.0 0.0 0.0
12:13 13.1 7.1 67 1007.6 11.4 SW 13.0 0.0 0.0
12:14 13.1 7.1 67 1007.9 11.4 S 13.0 0.0 0.0
12:15 13.0 7.2 68 1007.8 8.3 W 13.0 0.0 0.0
12:16 13.0 7.2 68 1007.9 8.3 SW 13.0 0.0 0.0
12:17 13.0 7.2 68 1007.6 10.7 NW 12.1 0.0 0.0
12:19 12.9 7.4 69 1007.8 9.8 SW 11.4 0.0 0.0
12:20 12.9 7.4 69 1007.7 8.3 SW 11.4 0.0 0.0
12:21 12.9 7.4 69 1007.5 12.1 SW 12.1 0.0 0.0
12:22 12.8 7.3 69 1007.7 13.0 W 13.0 0.0 0.0
12:23 12.8 7.3 69 1007.7 9.8 SW 13.0 0.0 0.0
12:24 12.8 7.3 69 1007.7 9.8 NW 13.0 0.0 0.0
12:25 12.8 7.3 69 1007.7 9.8 NW 13.0 0.0 0.0
12:26 12.8 7.3 69 1007.5 10.7 W 13.0 0.0 0.0
12:27 12.9 7.6 70 1007.6 9.2 W 13.0 0.0 0.0
12:28 13.0 7.7 70 1007.4 10.7 NW 13.0 0.0 0.0
12:29 13.1 7.8 70 1007.4 11.4 W 13.0 0.0 0.0
12:30 13.1 7.8 70 1007.5 11.4 W 13.0 0.0 0.0
12:31 13.2 7.4 68 1007.4 13.6 SW 13.6 0.0 0.0
12:32 13.2 7.4 68 1007.5 13.0 SW 13.6 0.0 0.0
12:33 13.3 7.3 67 1007.5 12.1 W 13.6 0.0 0.0
12:35 13.4 7.4 67 1007.4 11.4 W 13.6 0.0 0.0
12:36 13.4 7.2 66 1007.4 13.0 NW 13.6 0.0 0.0
12:37 13.4 7.2 66 1007.4 11.4 NE 13.6 0.0 0.0
12:38 13.4 7.2 66 1007.3 13.0 WSW 13.6 0.0 0.0
12:39 13.4 7.2 66 1007.5 10.7 SW 13.6 0.0 0.0
12:40 13.4 7.4 67 1007.4 9.8 W 13.6 0.0 0.0
12:41 13.5 7.5 67 1007.5 12.1 SW 13.6 0.0 0.0
12:42 13.6 7.6 67 1007.3 11.4 SW 13.0 0.0 0.0
12:43 13.8 7.8 67 1007.7 9.2 NW 13.0 0.0 0.0
12:44 13.9 8.1 68 1007.5 9.2 SW 13.0 0.0 0.0
12:45 14.1 8.1 67 1007.4 13.0 S 13.0 0.0 0.0
12:46 14.1 8.1 67 1007.5 9.8 S 13.0 0.0 0.0
12:47 14.4 8.4 67 1007.7 10.7 W 13.0 0.0 0.0
12:49 14.5 8.0 65 1007.4 13.6 W 13.6 0.0 0.0
12:50 14.5 8.0 65 1007.5 13.6 W 13.6 0.0 0.0
12:51 14.4 7.7 64 1007.3 8.3 SW 13.6 0.0 0.0
12:52 14.4 7.5 63 1007.4 14.5 N 14.5 0.0 0.0
12:53 14.3 7.4 63 1007.6 14.5 W 14.5 0.0 0.0
12:54 14.3 7.4 63 1007.4 15.2 W 15.2 0.0 0.0
12:55 14.3 7.4 63 1007.6 15.2 SW 15.2 0.0 0.0
12:56 14.2 7.0 62 1007.4 10.7 W 15.2 0.0 0.0
12:57 14.2 7.3 63 1007.4 13.0 S 15.2 0.0 0.0
12:58 14.2 7.0 62 1007.4 15.9 W 15.9 0.0 0.0
12:59 14.1 6.9 62 1007.4 12.1 SE 15.9 0.0 0.0
13:00 14.1 7.2 63 1007.5 7.6 SW 15.9 0.0 0.0
13:01 14.1 7.2 63 1007.5 7.6 SW 15.9 0.0 0.0
13:02 14.1 7.2 63 1007.7 7.6 SW 15.9 0.0 0.0
13:03 14.0 7.1 63 1007.6 8.3 SW 15.9 0.0 0.0
13:05 14.0 7.1 63 1007.8 14.5 SW 15.9 0.0 0.0
13:06 14.0 7.1 63 1007.6 14.5 W 15.9 0.0 0.0
13:07 13.9 6.7 62 1007.6 14.5 NW 15.9 0.0 0.0
13:08 13.9 7.0 63 1007.7 13.0 NW 14.5 0.0 0.0
13:09 13.9 7.0 63 1007.5 9.8 S 14.5 0.0 0.0
13:10 13.9 7.0 63 1007.5 9.8 S 14.5 0.0 0.0
13:11 14.0 7.1 63 1007.6 13.6 NW 14.5 0.0 0.0
13:12 14.2 7.3 63 1007.3 12.1 SE 14.5 0.0 0.0
13:13 14.3 7.1 62 1007.6 14.5 SW 14.5 0.0 0.0
13:14 14.4 7.2 62 1007.5 12.1 S 14.5 0.0 0.0
13:15 14.5 7.1 61 1007.6 13.0 W 14.5 0.0 0.0
13:16 14.5 7.1 61 1007.8 13.0 NNW 14.5 0.0 0.0
13:17 14.6 7.2 61 1007.6 13.0 S 14.5 0.0 0.0
13:19 14.8 7.4 61 1007.5 10.7 NW 14.5 0.0 0.0
13:20 15.0 7.5 61 1007.5 9.2 SW 14.5 0.0 0.0
13:21 15.0 7.5 61 1007.7 13.6 N 14.5 0.0 0.0
13:22 14.9 7.2 60 1007.6 13.6 SW 14.5 0.0 0.0
13:23 14.9 7.2 60 1007.7 7.6 SW 13.6 0.0 0.0
13:24 14.9 7.2 60 1007.6 13.0 SW 13.6 0.0 0.0
13:26 14.9 7.0 59 1007.5 13.0 N 13.6 0.0 0.0
13:27 15.0 7.1 59 1007.3 9.2 W 13.6 0.0 0.0
13:28 15.0 7.1 59 1007.3 7.6 S 13.6 0.0 0.0
13:29 15.0 7.1 59 1007.3 8.3 W 13.6 0.0 0.0
13:30 15.0 6.8 58 1007.6 13.6 W 13.6 0.0 0.0
13:32 15.2 7.0 58 1007.5 9.8 SW 13.6 0.0 0.0
13:33 15.3 7.1 58 1007.4 9.8 W 13.6 0.0 0.0
13:34 15.4 7.2 58 1007.7 8.3 SW 13.6 0.0 0.0
13:35 15.5 7.5 59 1007.5 10.7 WNW 13.6 0.0 0.0
13:36 15.5 7.3 58 1007.5 13.0 W 13.6 0.0 0.0
13:37 15.5 7.3 58 1007.5 13.0 W 13.6 0.0 0.0
13:38 15.5 7.0 57 1007.5 9.8 W 13.6 0.0 0.0
13:39 15.4 6.7 56 1007.1 16.8 NW 16.8 0.0 0.0
13:40 15.4 6.7 56 1007.5 11.4 WSW 16.8 0.0 0.0
13:41 15.3 6.8 57 1007.4 7.6 SW 16.8 0.0 0.0
13:42 15.3 7.1 58 1007.4 7.6 SW 16.8 0.0 0.0
13:43 15.3 6.8 57 1007.0 14.5 NW 16.8 0.0 0.0
13:44 15.2 6.5 56 1007.2 14.5 W 16.8 0.0 0.0
13:45 15.0 6.0 55 1007.4 15.9 W 16.8 0.0 0.0
13:47 14.9 5.9 55 1007.2 12.1 SW 16.8 0.0 0.0
13:48 14.7 5.8 55 1007.1 11.4 W 16.8 0.0 0.0
13:49 14.6 5.7 55 1007.2 14.5 S 16.8 0.0 0.0
13:50 14.5 5.8 56 1007.3 13.0 SW 15.9 0.0 0.0
13:51 14.5 5.8 56 1007.3 13.0 SW 15.9 0.0 0.0
13:52 14.5 6.1 57 1007.3 12.1 SW 15.9 0.0 0.0
13:53 14.6 6.2 57 1007.1 10.7 NW 15.9 0.0 0.0
13:54 14.6 6.2 57 1007.5 7.6 S 15.9 0.0 0.0
13:55 14.7 6.5 58 1007.0 13.0 S 15.9 0.0 0.0
13:56 14.7 6.5 58 1007.1 13.0 W 14.5 0.0 0.0
13:57 14.7 6.8 59 1007.0 7.6 W 14.5 0.0 0.0
13:58 14.7 6.5 58 1007.0 13.0 W 14.5 0.0 0.0
13:59 14.6 6.4 58 1007.0 15.2 WSW 15.2 0.0 0.0
14:00 14.6 6.4 58 1007.2 13.0 W 15.2 0.0 0.0
14:02 14.5 6.8 60 1007.1 9.8 SW 15.2 0.0 0.0
14:03 14.5 6.8 60 1006.9 9.8 SW 15.2 0.0 0.0
14:04 14.5 6.8 60 1007.2 13.0 W 15.2 0.0 0.0
14:05 14.5 6.8 60 1006.9 14.5 W 15.2 0.0 0.0
14:06 14.5 6.8 60 1007.1 14.5 W 15.2 0.0 0.0
14:07 14.4 6.7 60 1006.9 9.2 S 15.2 0.0 0.0
14:08 14.5 6.8 60 1007.1 9.8 SW 15.2 0.0 0.0
14:09 14.5 6.8 60 1007.0 8.3 SW 15.2 0.0 0.0
14:10 14.5 6.8 60 1006.9 8.3 NW 14.5 0.0 0.0
14:11 14.5 6.8 60 1007.0 13.6 W 14.5 0.0 0.0
14:12 14.5 6.8 60 1007.1 17.4 SW 17.4 0.0 0.0
14:13 14.5 6.8 60 1006.8 17.4 SW 17.4 0.0 0.0
14:14 14.4 6.7 60 1007.1 16.8 S 17.4 0.0 0.0
14:15 14.4 6.7 60 1006.8 12.1 NW 17.4 0.0 0.0
14:17 14.3 6.9 61 1007.1 9.8 SW 17.4 0.0 0.0
14:18 14.4 7.0 61 1006.8 13.6 NW 17.4 0.0 0.0
14:19 14.4 7.2 62 1006.8 13.6 W 17.4 0.0 0.0
14:20 14.4 7.2 62 1007.0 15.2 W 17.4 0.0 0.0
14:21 14.3 7.1 62 1006.9 15.2 SW 17.4 0.0 0.0
14:22 14.3 7.1 62 1006.8 14.5 SW 17.4 0.0 0.0
14:23 14.3 7.1 62 1006.9 12.1 SW 16.8 0.0 0.0
14:24 14.3 7.1 62 1007.0 15.2 W 15.2 0.0 0.0
14:25 14.3 7.1 62 1006.7 14.5 SW 15.2 0.0 0.0
14:26 14.2 7.0 62 1006.8 14.5 NW 15.2 0.0 0.0
14:27 14.2 7.0 62 1006.9 8.3 SW 15.2 0.0 0.0
14:28 14.2 7.3 63 1006.9 13.6 SW 15.2 0.0 0.0
14:29 14.2 7.3 63 1006.8 9.8 W 15.2 0.0 0.0
14:30 14.2 7.3 63 1007.0 7.6 N 15.2 0.0 0.0
14:31 14.3 7.6 64 1007.0 11.4 SW 15.2 0.0 0.0
14:33 14.3 7.4 63 1006.9 9.2 W 17.4 0.0 0.0
14:34 14.3 7.6 64 1006.8 9.2 W 17.4 0.0 0.0
14:35 14.3 7.6 64 1006.8 9.2 NW 17.4 0.0 0.0
14:36 14.4 7.7 64 1006.9 14.5 SW 17.4 0.0 0.0
14:37 14.4 7.7 64 1007.0 10.7 WNW 17.4 0.0 0.0
14:38 14.4 7.7 64 1006.8 9.2 NW 17.4 0.0 0.0
14:39 14.4 7.7 64 1006.9 9.2 NW 17.4 0.0 0.0
14:40 14.4 7.7 64 1007.0 9.8 NW 17.4 0.0 0.0
14:41 14.4 7.7 64 1006.8 9.8 SW 17.4 0.0 0.0
14:42 14.4 7.7 64 1006.9 9.8 W 17.4 0.0 0.0
14:43 14.4 7.7 64 1006.9 9.8 W 14.5 0.0 0.0
14:44 14.4 7.7 64 1007.0 9.8 W 14.5 0.0 0.0
14:45 14.4 7.7 64 1006.8 9.8 W 14.5 0.0 0.0
14:46 14.4 7.7 64 1006.6 14.5 W 14.5 0.0 0.0
14:47 14.4 7.7 64 1006.8 13.6 SW 14.5 0.0 0.0
14:49 14.4 7.7 64 1006.7 14.5 W 14.5 0.0 0.0
14:50 14.4 7.7 64 1006.8 11.4 NW 14.5 0.0 0.0
14:51 14.4 7.7 64 1006.7 13.0 SW 14.5 0.0 0.0
14:52 14.4 7.7 64 1006.6 14.5 S 14.5 0.0 0.0
14:53 14.4 7.7 64 1006.8 13.0 W 14.5 0.0 0.0
14:54 14.4 7.7 64 1006.7 11.4 WSW 14.5 0.0 0.0
14:55 14.4 7.7 64 1006.9 11.4 SW 14.5 0.0 0.0
14:56 14.4 7.7 64 1006.8 13.0 SW 14.5 0.0 0.0
14:57 14.4 7.7 64 1006.9 13.0 SW 14.5 0.0 0.0
14:58 14.4 7.7 64 1006.8 15.2 WNW 15.2 0.0 0.0
14:59 14.3 7.8 65 1006.7 14.5 N 15.2 0.0 0.0
15:00 14.2 7.7 65 1006.7 15.2 SW 15.2 0.0 0.0
15:01 14.2 7.7 65 1006.9 15.2 SW 15.2 0.0 0.0
15:02 14.2 7.7 65 1006.9 15.2 SW 15.2 0.0 0.0
15:04 14.0 7.8 66 1006.9 13.0 NW 15.2 0.0 0.0
15:05 14.0 8.0 67 1006.8 11.4 W 15.2 0.0 0.0
15:06 14.0 8.0 67 1006.8 9.2 SW 15.2 0.0 0.0
15:07 14.0 8.0 67 1006.8 13.0 SW 15.2 0.0 0.0
15:08 14.0 8.0 67 1006.8 13.0 S 15.2 0.0 0.0
15:09 13.9 7.9 67 1007.0 15.2 SW 15.2 0.0 0.0
15:10 14.0 8.2 68 1006.9 15.2 S 15.2 0.0 0.0
15:11 14.0 8.2 68 1006.8 15.2 S 15.2 0.0 0.0
15:12 14.0 8.4 69 1006.9 13.6 W 15.2 0.0 0.0
15:13 14.0 8.4 69 1006.7 15.2 SW 15.2 0.0 0.0
15:14 14.0 8.4 69 1006.7 15.2 S 15.2 0.0 0.0
15:15 14.0 8.2 68 1006.8 13.6 W 15.9 0.0 0.0
15:16 13.9 8.1 68 1006.8 12.1 SW 15.9 0.0 0.0
15:17 13.8 8.0 68 1006.7 9.8 W 15.9 0.0 0.0
15:18 13.8 8.2 69 1006.8 9.8 SW 15.9 0.0 0.0
15:19 13.8 8.2 69 1006.8 12.1 SW 16.8 0.0 0.0
15:21 13.7 8.1 69 1007.0 13.0 SW 16.8 0.0 0.0
15:22 13.7 8.1 69 1006.9 10.7 NE 16.8 0.0 0.0
15:23 13.6 8.0 69 1006.8 7.6 SW 16.8 0.0 0.0
15:24 13.6 8.0 69 1006.9 11.4 SW 16.8 0.0 0.0
15:25 13.5 7.9 69 1006.8 9.8 S 16.8 0.0 0.0
15:26 13.5 7.9 69 1006.8 7.6 SW 16.8 0.0 0.0
15:27 13.5 7.9 69 1006.7 6.9 W 16.8 0.0 0.0
15:28 13.5 7.9 69 1006.8 6.9 W 16.8 0.0 0.0
15:29 13.4 8.0 70 1006.7 9.2 W 13.6 0.0 0.0
15:30 13.4 8.0 70 1006.7 14.5 W 14.5 0.0 0.0
15:32 13.3 7.9 70 1006.4 11.4 W 14.5 0.0 0.0
15:33 13.3 7.9 70 1006.5 14.5 W 14.5 0.0 0.0
15:34 13.2 7.9 70 1006.7 12.1 SW 14.5 0.0 0.0
15:35 13.2 7.9 70 1006.7 9.2 W 14.5 0.0 0.0
15:36 13.1 7.8 70 1006.6 7.6 W 14.5 0.0 0.0
15:37 13.1 8.0 71 1006.6 6.9 SW 14.5 0.0 0.0
15:38 13.1 8.0 71 1006.6 6.9 SW 14.5 0.0 0.0
15:39 13.1 8.2 72 1006.7 9.2 W 14.5 0.0 0.0
15:40 13.1 8.4 73 1006.5 11.4 W 14.5 0.0 0.0
15:41 13.2 8.5 73 1006.6 11.4 SW 14.5 0.0 0.0
15:42 13.2 8.7 74 1006.6 9.8 S 14.5 0.0 0.0
15:43 13.3 8.6 73 1006.5 10.7 SW 14.5 0.0 0.0
15:44 13.3 8.6 73 1006.6 9.8 SW 12.1 0.0 0.0
15:45 13.3 8.6 73 1006.6 9.8 W 11.4 0.0 0.0
15:46 13.4 8.7 73 1006.6 8.3 NNW 12.1 0.0 0.0
15:48 13.4 8.5 72 1006.3 11.4 W 12.1 0.0 0.0
15:49 13.4 8.5 72 1006.5 15.2 S 15.2 0.0 0.0
15:50 13.4 8.5 72 1006.5 9.2 S 15.2 0.0 0.0
15:51 13.5 8.6 72 1006.3 10.7 W 15.2 0.0 0.0
15:52 13.6 8.7 72 1006.4 12.1 W 15.2 0.0 0.0
15:53 13.7 8.7 72 1006.4 11.4 NE 15.2 0.0 0.0
15:54 13.7 8.7 72 1006.4 11.4 NE 15.2 0.0 0.0
15:55 13.8 8.8 72 1006.4 10.7 W 15.2 0.0 0.0
15:56 13.9 8.9 72 1006.6 10.7 NW 15.2 0.0 0.0
15:57 14.0 9.0 72 1006.6 10.7 SW 15.2 0.0 0.0
15:58 14.1 9.1 72 1006.5 13.0 S 15.2 0.0 0.0
15:59 14.2 8.8 70 1006.4 15.2 SSW 15.2 0.0 0.0
16:00 14.2 8.8 70 1006.6 13.0 W 15.2 0.0 0.0
16:01 14.2 8.8 70 1006.4 13.0 W 15.2 0.0 0.0
16:02 14.1 8.5 69 1006.4 11.4 SE 15.2 0.0 0.0
16:03 14.1 8.3 68 1006.4 13.6 W 15.2 0.0 0.0
16:05 14.1 8.3 68 1006.3 11.4 SW 15.2 0.0 0.0
16:06 14.0 8.2 68 1006.3 14.5 W 15.2 0.0 0.0
16:07 14.0 8.2 68 1006.6 14.5 SW 15.2 0.0 0.0
16:08 13.9 8.1 68 1006.6 12.1 W 15.2 0.0 0.0
16:09 13.9 8.1 68 1006.4 11.4 S 15.2 0.0 0.0
16:10 13.9 8.1 68 1006.4 9.8 S 14.5 0.0 0.0
16:11 13.8 8.0 68 1006.5 12.1 SW 14.5 0.0 0.0
16:12 13.8 8.0 68 1006.4 10.7 W 14.5 0.0 0.0
16:13 13.8 8.2 69 1006.4 13.0 W 14.5 0.0 0.0
16:14 13.8 8.2 69 1006.3 12.1 W 14.5 0.0 0.0
16:15 13.7 8.1 69 1006.5 14.5 NW 14.5 0.0 0.0
16:16 13.7 8.3 70 1006.6 13.0 S 14.5 0.0 0.0
16:17 13.7 8.3 70 1006.5 9.8 W 14.5 0.0 0.0
16:18 13.6 8.2 70 1006.6 9.2 SW 14.5 0.0 0.0
16:19 13.6 8.2 70 1006.5 10.7 NW 14.5 0.0 0.0
16:21 13.6 8.2 70 1006.4 10.7 NW 14.5 0.0 0.0
16:22 13.6 8.2 70 1006.5 13.6 NW 14.5 0.0 0.0
16:23 13.6 8.2 70 1006.3 13.6 SW 14.5 0.0 0.0
16:24 13.6 8.2 70 1006.4 9.2 S 14.5 0.0 0.0
16:25 13.7 8.3 70 1006.2 8.3 SW 13.6 0.0 0.0
16:26 13.7 8.3 70 1006.3 14.5 SW 14.5 0.0 0.0
16:27 13.7 8.3 70 1006.2 14.5 WNW 14.5 0.0 0.0
16:28 13.7 8.3 70 1006.3 9.8 W 14.5 0.0 0.0
16:29 13.7 8.3 70 1006.2 9.2 SW 14.5 0.0 0.0
16:30 13.7 8.3 70 1006.3 12.1 W 14.5 0.0 0.0
16:31 13.6 8.2 70 1006.3 10.7 SW 14.5 0.0 0.0
16:32 13.6 8.2 70 1006.1 11.4 S 14.5 0.0 0.0
16:33 13.6 8.2 70 1006.3 9.8 W 14.5 0.0 0.0
16:34 13.6 8.2 70 1006.3 10.7 S 14.5 0.0 0.0
16:35 13.6 8.2 70 1006.3 13.6 SW 14.5 0.0 0.0
16:36 13.6 8.2 70 1006.3 13.6 S 14.5 0.0 0.0
16:37 13.5 8.1 70 1006.3 13.6 SW 14.5 0.0 0.0
16:38 13.5 8.1 70 1006.4 11.4 SW 13.6 0.0 0.0
16:39 13.4 8.0 70 1006.3 13.6 SW 13.6 0.0 0.0
16:40 13.4 8.0 70 1006.4 9.2 SW 13.6 0.0 0.0
16:41 13.3 7.9 70 1006.2 8.3 S 13.6 0.0 0.0
16:43 13.3 8.2 71 1006.3 9.8 S 13.6 0.0 0.0
16:44 13.3 8.2 71 1006.2 6.9 NW 13.6 0.0 0.0
16:45 13.3 8.2 71 1006.3 8.3 WSW 13.6 0.0 0.0
16:46 13.3 8.2 71 1006.4 8.3 SW 13.6 0.0 0.0
16:47 13.3 8.2 71 1006.2 9.2 SW 13.6 0.0 0.0
16:48 13.4 8.3 71 1006.3 11.4 S 13.6 0.0 0.0
16:49 13.4 8.3 71 1006.3 11.4 S 13.6 0.0 0.0
16:50 13.4 8.3 71 1006.3 11.4 SW 13.0 0.0 0.0
16:51 13.4 8.3 71 1006.4 8.3 N 11.4 0.0 0.0
16:52 13.4 8.3 71 1006.5 7.6 W 11.4 0.0 0.0
16:53 13.4 8.3 71 1006.5 7.6 SW 11.4 0.0 0.0
16:54 13.5 8.3 71 1006.4 9.2 S 11.4 0.0 0.0
16:55 13.5 8.3 71 1006.2 10.7 SSW 11.4 0.0 0.0
16:56 13.5 8.3 71 1006.3 8.3 SW 11.4 0.0 0.0
16:57 13.5 8.3 71 1006.2 13.6 SW 13.6 0.0 0.0
16:58 13.5 8.3 71 1006.4 10.7 SW 13.6 0.0 0.0
16:59 13.5 8.3 71 1006.1 10.7 SE 13.6 0.0 0.0
17:01 13.5 8.3 71 1006.3 12.1 S 13.6 0.0 0.0
17:02 13.5 8.3 71 1006.1 12.1 S 13.6 0.0 0.0
17:03 13.5 8.3 71 1006.2 12.1 S 13.6 0.0 0.0
17:04 13.5 8.3 71 1006.2 12.1 S 13.6 0.0 0.0
17:05 13.4 8.3 71 1006.4 13.0 S 13.6 0.0 0.0
17:06 13.4 8.3 71 1006.2 11.4 S 13.6 0.0 0.0
17:07 13.4 8.5 72 1006.1 13.6 S 13.6 0.0 0.0
17:08 13.4 8.5 72 1006.0 13.6 S 13.6 0.0 0.0
17:09 13.3 8.4 72 1006.2 11.4 SW 13.6 0.0 0.0
17:10 13.3 8.4 72 1006.0 7.6 SW 13.6 0.0 0.0
17:11 13.3 8.4 72 1006.2 11.4 S 13.6 0.0 0.0
17:12 13.3 8.4 72 1006.0 12.1 S 13.6 0.0 0.0
17:13 13.3 8.4 72 1006.0 12.1 N 13.6 0.0 0.0
17:14 13.3 8.4 72 1006.1 8.3 S 13.6 0.0 0.0
17:15 13.3 8.4 72 1006.1 11.4 SW 13.6 0.0 0.0
17:16 13.2 8.3 72 1005.9 13.6 SW 13.6 0.0 0.0
17:18 13.2 8.3 72 1006.0 13.6 NW 13.6 0.0 0.0
17:19 13.2 8.3 72 1006.1 9.2 SW 13.6 0.0 0.0
17:20 13.2 8.3 72 1006.1 14.5 W 14.5 0.0 0.0
17:21 13.1 8.2 72 1006.1 14.5 W 14.5 0.0 0.0
17:22 13.1 8.2 72 1006.1 9.8 SW 14.5 0.0 0.0
17:23 13.1 8.2 72 1006.1 13.0 SW 14.5 0.0 0.0
17:24 13.1 8.2 72 1006.0 10.7 S 14.5 0.0 0.0
17:25 13.0 8.1 72 1006.0 9.8 SW 14.5 0.0 0.0
17:26 13.0 8.1 72 1006.0 13.6 SW 14.5 0.0 0.0
17:27 12.9 8.2 73 1005.8 8.3 SW 14.5 0.0 0.0
17:28 12.9 8.2 73 1006.0 11.4 SW 14.5 0.0 0.0
17:29 12.9 8.2 73 1006.0 9.8 SW 14.5 0.0 0.0
17:30 12.9 8.2 73 1006.1 13.6 W 14.5 0.0 0.0
17:31 12.8 8.1 73 1005.9 7.6 SW 14.5 0.0 0.0
17:32 12.8 8.1 73 1005.9 8.3 S 13.6 0.0 0.0
17:33 12.8 8.3 74 1005.9 10.7 SW 13.6 0.0 0.0
17:34 12.8 8.3 74 1005.9 15.2 W 15.2 0.0 0.0
17:35 12.7 8.2 74 1005.9 7.6 SW 15.2 0.0 0.0
17:36 12.7 8.2 74 1005.8 9.2 SW 15.2 0.0 0.0
17:37 12.7 8.2 74 1005.8 10.7 SW 15.2 0.0 0.0
17:38 12.7 8.4 75 1005.7 10.7 S 15.2 0.0 0.0
17:39 12.7 8.4 75 1005.8 9.8 SW 15.2 0.0 0.0
17:40 12.7 8.4 75 1005.8 9.8 W 15.2 0.0 0.0
17:41 12.7 8.4 75 1005.9 9.2 S 15.2 0.0 0.0
17:43 12.7 8.6 76 1005.9 13.6 SW 15.2 0.0 0.0
17:44 12.7 8.6 76 1005.9 10.7 SW 14.5 0.0 0.0
17:45 12.7 8.6 76 1005.6 15.2 SW 15.2 0.0 0.0
17:46 12.7 8.6 76 1005.8 13.6 S 15.2 0.0 0.0
17:47 12.7 8.6 76 1005.6 10.7 SW 15.2 0.0 0.0
17:48 12.7 8.6 76 1005.6 11.4 W 15.2 0.0 0.0
17:49 12.7 8.6 76 1005.8 9.2 S 15.2 0.0 0.0
17:50 12.7 8.6 76 1005.6 11.4 SW 15.2 0.0 0.0
17:51 12.7 8.6 76 1005.5 6.0 W 15.2 0.0 0.0
17:52 12.7 8.6 76 1005.6 6.0 SW 15.2 0.0 0.0
17:53 12.7 8.6 76 1005.6 6.9 S 15.2 0.0 0.0
17:54 12.7 8.6 76 1005.6 6.9 S 15.2 0.0 0.0
17:55 12.7 8.8 77 1005.6 12.1 SW 15.2 0.0 0.0
17:57 12.7 8.8 77 1005.8 10.7 S 12.1 0.0 0.0
17:58 12.7 8.8 77 1005.8 10.7 S 12.1 0.0 0.0
17:59 12.7 8.8 77 1005.8 7.6 E 12.1 0.0 0.0
18:00 12.7 8.8 77 1005.4 15.2 SW 15.2 0.0 0.0
18:01 12.7 8.8 77 1005.7 15.2 SW 15.2 0.0 0.0
18:02 12.7 8.8 77 1005.7 15.2 SW 15.2 0.0 0.0
18:03 12.7 8.8 77 1005.6 15.2 SW 15.2 0.0 0.0
18:04 12.7 8.8 77 1005.6 15.2 SW 15.2 0.0 0.0
18:05 12.7 8.8 77 1005.6 15.2 SW 15.2 0.0 0.0
18:06 12.8 8.9 77 1005.8 13.0 S 15.2 0.0 0.0
18:07 12.8 8.9 77 1005.7 9.2 SW 15.2 0.0 0.0
18:08 12.8 8.9 77 1005.6 13.6 SW 15.2 0.0 0.0
18:09 12.8 8.9 77 1005.5 14.5 SW 15.2 0.0 0.0
18:11 12.8 8.7 76 1005.8 10.7 S 15.9 0.0 0.0
18:12 12.7 8.6 76 1005.8 15.2 SW 15.9 0.0 0.0
18:13 12.7 8.6 76 1005.6 12.1 SW 15.9 0.0 0.0
18:14 12.7 8.6 76 1005.7 15.2 S 15.9 0.0 0.0
18:15 12.7 8.6 76 1005.7 15.2 S 15.9 0.0 0.0
18:16 12.7 8.6 76 1005.9 10.7 SW 15.9 0.0 0.0
18:17 12.7 8.6 76 1005.6 10.7 SW 15.9 0.0 0.0
18:18 12.7 8.6 76 1005.6 8.3 NE 15.9 0.0 0.0
18:19 12.6 8.7 77 1005.4 9.2 W 15.9 0.0 0.0
18:20 12.6 8.7 77 1005.6 14.5 S 15.9 0.0 0.0
18:21 12.6 8.7 77 1005.6 13.6 S 15.2 0.0 0.0
18:22 12.6 8.7 77 1005.7 13.6 SSW 15.2 0.0 0.0
18:23 12.6 8.7 77 1005.7 13.6 SW 15.2 0.0 0.0
18:24 12.5 8.8 78 1005.7 12.1 SW 15.2 0.0 0.0
18:26 12.5 8.8 78 1005.3 14.5 SW 14.5 0.0 0.0
18:27 12.4 9.2 81 1005.7 8.3 W 14.5 0.0 0.0
18:28 12.4 9.2 81 1005.6 11.4 S 14.5 0.0 0.0
18:29 12.3 9.1 81 1005.8 11.4 S 14.5 0.0 0.0
18:30 12.3 9.1 81 1005.8 8.3 S 14.5 0.0 0.0
18:31 12.3 9.3 82 1005.8 8.3 S 14.5 0.0 0.0
18:32 12.3 9.3 82 1005.7 9.8 SW 14.5 0.0 0.0
18:33 12.3 9.3 82 1005.7 10.7 SW 14.5 0.0 0.0
18:34 12.2 9.2 82 1005.4 11.4 SW 14.5 0.0 0.0
18:35 12.2 9.2 82 1005.7 13.0 SW 14.5 0.0 0.0
18:36 12.2 9.2 82 1005.7 13.0 S 14.5 0.0 0.0
18:37 12.1 9.1 82 1005.5 13.0 SW 13.0 0.0 0.0
18:38 12.1 9.1 82 1005.6 9.8 SE 13.0 0.0 0.0
18:39 12.1 9.3 83 1005.6 9.2 S 13.0 0.0 0.0
18:40 12.1 9.3 83 1005.5 13.0 SW 13.0 0.0 0.0
18:42 12.1 9.3 83 1005.4 12.1 S 13.0 0.0 0.0
18:43 12.1 9.3 83 1005.7 12.1 S 13.0 0.0 0.0
18:44 12.0 9.2 83 1005.5 6.9 SW 13.0 0.0 0.0
18:45 12.0 9.2 83 1005.6 8.3 S 13.0 0.0 0.0
18:46 12.0 9.4 84 1005.5 12.1 E 13.0 0.0 0.0
18:47 12.0 9.4 84 1005.5 12.1 S 13.0 0.0 0.0
18:48 12.0 9.4 84 1005.7 13.0 SW 13.0 0.0 0.0
18:49 12.0 9.4 84 1005.4 13.0 SW 13.0 0.0 0.0
18:50 12.0 9.4 84 1005.4 12.1 SW 13.0 0.0 0.0
18:51 12.0 9.4 84 1005.5 9.8 SW 13.0 0.0 0.0
18:52 12.0 9.4 84 1005.7 9.8 SW 13.0 0.0 0.0
18:53 12.0 9.4 84 1005.6 13.0 W 13.0 0.0 0.0
18:54 12.0 9.4 84 1005.4 12.1 S 13.0 0.0 0.0
18:55 12.0 9.4 84 1005.6 13.6 SW 13.6 0.0 0.0
18:57 12.0 9.4 84 1005.2 12.1 SW 13.6 0.0 0.0
18:58 12.0 9.4 84 1005.4 9.8 NNE 13.6 0.0 0.0
18:59 12.0 9.4 84 1005.4 11.4 SW 13.6 0.0 0.0
19:00 12.0 9.4 84 1005.3 11.4 SW 13.6 0.0 0.0
19:01 12.0 9.4 84 1005.3 11.4 SW 13.6 0.0 0.0
19:02 12.0 9.4 84 1005.3 11.4 SW 13.6 0.0 0.0
19:03 12.0 9.4 84 1005.6 11.4 SW 13.6 0.0 0.0
19:04 12.0 9.4 84 1005.2 11.4 SW 13.6 0.0 0.0
19:05 12.0 9.4 84 1005.2 11.4 SW 13.6 0.0 0.0
19:06 12.0 9.6 85 1005.4 10.7 S 12.1 0.0 0.0
19:07 12.0 9.6 85 1005.4 13.6 SW 13.6 0.0 0.0
19:08 12.0 9.6 85 1005.2 8.3 SW 13.6 0.0 0.0
19:09 12.0 9.6 85 1005.3 12.1 SW 13.6 0.0 0.0
19:10 12.0 9.6 85 1005.6 9.2 S 13.6 0.0 0.0
19:12 12.0 9.6 85 1005.4 8.3 SSE 13.6 0.0 0.0
19:13 12.0 9.6 85 1005.0 9.2 S 13.6 0.0 0.0
19:14 12.0 9.6 85 1005.2 10.7 SW 13.6 0.0 0.0
19:15 12.0 9.6 85 1005.2 9.8 SW 13.6 0.0 0.0
19:16 12.0 9.6 85 1005.0 14.5 S 14.5 0.0 0.0
19:17 12.0 9.6 85 1005.0 14.5 S 14.5 0.0 0.0
19:18 12.0 9.6 85 1005.0 9.2 SW 14.5 0.0 0.0
19:19 12.0 9.6 85 1005.1 10.7 SW 14.5 0.0 0.0
19:20 12.0 9.4 84 1005.0 6.9 SW 14.5 0.0 0.0
19:21 12.0 9.4 84 1005.2 7.6 SW 14.5 0.0 0.0
19:22 12.0 9.4 84 1004.9 7.6 SW 14.5 0.0 0.0
19:23 12.0 9.4 84 1005.1 8.3 S 14.5 0.0 0.0
19:24 12.0 9.4 84 1005.1 14.5 S 14.5 0.0 0.0
19:25 12.0 9.4 84 1005.0 13.6 SW 14.5 0.0 0.0
19:26 12.0 9.4 84 1005.1 11.4 S 14.5 0.0 0.0
19:27 12.0 9.4 84 1005.1 13.0 SW 14.5 0.0 0.0
19:28 12.0 9.4 84 1004.9 14.5 S 14.5 0.0 0.0
19:29 12.0 9.4 84 1004.8 14.5 S 14.5 0.0 0.0
19:30 12.0 9.4 84 1004.8 11.4 S 14.5 0.0 0.0
19:32 12.0 9.4 84 1004.9 9.8 S 14.5 0.0 0.0
19:33 12.0 9.4 84 1004.9 8.3 S 14.5 0.0 0.0
19:34 12.0 9.4 84 1004.9 9.8 SW 14.5 0.0 0.0
19:35 12.0 9.4 84 1004.8 9.8 SW 14.5 0.0 0.0
19:36 12.1 9.5 84 1005.0 8.3 S 14.5 0.0 0.0
19:37 12.1 9.5 84 1004.8 9.2 SW 14.5 0.0 0.0
19:38 12.1 9.5 84 1004.8 9.2 SW 14.5 0.0 0.0
19:39 12.1 9.7 85 1005.0 10.7 SW 14.5 0.0 0.0
19:40 12.1 9.7 85 1004.9 9.2 S 11.4 0.0 0.0
19:41 12.1 9.7 85 1004.9 9.2 S 11.4 0.0 0.0
19:42 12.1 9.7 85 1004.8 12.1 S 12.1 0.0 0.0
19:43 12.1 9.7 85 1004.8 9.2 SW 12.1 0.0 0.0
19:44 12.1 9.7 85 1005.0 8.3 SW 12.1 0.0 0.0
19:45 12.1 9.7 85 1004.8 8.3 SW 12.1 0.0 0.0
19:46 12.1 9.7 85 1004.8 8.3 S 12.1 0.0 0.0
19:47 12.1 9.7 85 1004.7 11.4 SW 12.1 0.0 0.0
19:49 12.1 9.7 85 1004.7 15.2 SE 19.0 0.0 0.0
19:50 12.1 9.7 85 1005.0 10.7 SW 19.0 0.0 0.0
19:51 12.1 9.7 85 1004.6 12.1 S 19.0 0.0 0.0
19:52 12.2 9.8 85 1004.8 9.8 S 19.0 0.0 0.0
19:53 12.2 9.8 85 1004.7 9.2 S 19.0 0.0 0.0
19:54 12.2 9.8 85 1004.7 9.2 S 19.0 0.0 0.0
19:55 12.2 9.8 85 1004.9 9.8 S 19.0 0.0 0.0
19:56 12.2 9.8 85 1004.8 11.4 S 19.0 0.0 0.0
19:57 12.2 9.8 85 1005.0 11.4 WSW 19.0 0.0 0.0
19:58 12.2 9.8 85 1004.7 11.4 SW 19.0 0.0 0.0
19:59 12.3 9.9 85 1004.8 9.8 S 15.2 0.0 0.0
20:00 12.3 9.9 85 1004.6 10.7 S 12.1 0.0 0.0
20:01 12.3 9.9 85 1004.6 10.7 S 12.1 0.0 0.0
20:02 12.3 9.9 85 1004.8 10.7 S 11.4 0.0 0.0
20:04 12.3 9.9 85 1004.6 10.7 S 11.4 0.0 0.0
20:05 12.3 9.9 85 1004.5 10.7 S 11.4 0.0 0.0
20:06 12.3 9.9 85 1004.5 13.0 SW 13.0 0.0 0.0
20:07 12.3 10.0 86 1004.5 12.1 S 13.0 0.0 0.0
20:08 12.3 10.0 86 1004.4 13.0 SW 13.0 0.0 0.0
20:09 12.3 10.0 86 1004.4 13.0 SW 13.0 0.0 0.0
20:10 12.3 10.0 86 1004.2 13.0 S 13.0 0.0 0.0
20:11 12.3 10.0 86 1004.5 7.6 S 13.0 0.0 0.0
20:12 12.4 10.1 86 1004.5 9.8 S 13.0 0.0 0.0
20:13 12.4 10.1 86 1004.6 9.8 S 13.0 0.0 0.0
20:14 12.4 10.1 86 1004.4 18.3 S 18.3 0.0 0.0
20:15 12.4 10.1 86 1004.4 9.2 S 18.3 0.0 0.0
20:16 12.4 10.1 86 1004.6 12.1 S 18.3 0.0 0.0
20:18 12.4 10.1 86 1004.6 9.8 SW 18.3 0.0 0.0
20:19 12.4 10.1 86 1004.5 9.8 SW 18.3 0.0 0.0
20:20 12.4 10.1 86 1004.5 13.0 SW 18.3 0.0 0.0
20:21 12.4 10.1 86 1004.4 12.1 SW 18.3 0.0 0.0
20:22 12.4 10.1 86 1004.1 10.7 S 18.3 0.0 0.0
20:23 12.4 10.1 86 1004.5 8.3 S 18.3 0.0 0.0
20:24 12.4 10.1 86 1004.7 11.4 S 13.6 0.0 0.0
20:25 12.4 10.1 86 1004.3 6.9 S 13.0 0.0 0.0
20:26 12.4 10.1 86 1004.3 10.7 S 13.0 0.0 0.0
20:27 12.4 10.1 86 1004.5 7.6 W 13.0 0.0 0.0
20:28 12.5 9.7 83 1004.3 9.8 S 13.0 0.0 0.0
20:29 12.5 9.7 83 1004.5 11.4 S 13.0 0.0 0.0
20:30 12.5 9.7 83 1004.4 10.7 W 13.0 0.0 0.0
20:31 12.5 9.7 83 1004.3 9.2 S 15.9 0.0 0.0
20:32 12.5 9.7 83 1004.4 9.2 S 15.9 0.0 0.0
20:33 12.5 9.7 83 1004.3 10.7 S 15.9 0.0 0.0
20:35 12.5 9.7 83 1004.2 9.8 S 15.9 0.0 0.0
20:36 12.5 9.7 83 1004.3 7.6 W 15.9 0.0 0.0
20:37 12.5 9.7 83 1004.2 9.8 S 15.9 0.0 0.0
20:38 12.5 9.7 83 1004.4 12.1 S 15.9 0.0 0.0
20:39 12.5 9.7 83 1004.3 12.1 SW 15.9 0.0 0.0
20:40 12.5 9.7 83 1004.4 13.6 S 15.9 0.0 0.0
20:41 12.5 9.7 83 1004.2 9.8 S 13.6 0.0 0.0
20:42 12.5 9.9 84 1004.4 9.8 SE 13.6 0.0 0.0
20:43 12.5 9.9 84 1004.3 8.3 S 13.6 0.0 0.0
20:44 12.5 9.9 84 1004.3 11.4 S 13.6 0.0 0.0
20:45 12.5 9.9 84 1004.0 11.4 S 13.6 0.0 0.0
20:46 12.5 9.9 84 1004.3 11.4 S 13.6 0.0 0.0
20:47 12.5 9.9 84 1004.1 9.8 S 13.6 0.0 0.0
20:48 12.5 9.9 84 1004.4 8.3 SW 13.6 0.0 0.0
20:50 12.5 9.9 84 1004.2 12.1 SSW 12.1 0.0 0.0
20:51 12.5 9.9 84 1004.2 10.7 W 12.1 0.0 0.0
20:52 12.5 9.9 84 1004.5 12.1 W 12.1 0.0 0.0
20:53 12.6 10.0 84 1004.3 8.3 SW 12.1 0.0 0.0
20:54 12.6 10.0 84 1004.1 11.4 SE 12.1 0.0 0.0
20:55 12.6 10.0 84 1004.1 11.4 SE 12.1 0.0 0.0
20:56 12.6 10.0 84 1004.2 9.8 SW 12.1 0.0 0.0
20:57 12.6 10.0 84 1004.4 8.3 S 12.1 0.0 0.0
20:58 12.6 10.1 85 1004.3 9.8 SW 12.1 0.0 0.0
20:59 12.6 10.1 85 1004.2 10.7 E 12.1 0.0 0.0
21:00 12.6 10.1 85 1004.1 10.7 W 12.1 0.0 0.0
21:01 12.6 10.1 85 1004.3 10.7 W 12.1 0.0 0.0
21:02 12.6 10.1 85 1004.4 10.7 W 12.1 0.0 0.0
21:03 12.6 10.1 85 1004.2 10.7 W 12.1 0.0 0.0
21:04 12.6 10.1 85 1004.3 10.7 W 12.1 0.0 0.0
21:06 12.6 10.1 85 1004.3 13.6 S 13.6 0.0 0.0
21:07 12.6 10.1 85 1004.3 13.6 S 13.6 0.0 0.0
21:08 12.6 10.1 85 1004.2 9.8 SW 13.6 0.0 0.0
21:09 12.6 10.1 85 1004.2 10.7 S 13.6 0.0 0.0
21:10 12.6 10.1 85 1004.3 10.7 SW 13.6 0.0 0.0
21:11 12.6 10.1 85 1004.4 11.4 S 13.6 0.0 0.0
21:12 12.6 10.1 85 1004.2 9.8 W 13.6 0.0 0.0
21:13 12.6 10.1 85 1004.4 9.8 S 13.6 0.0 0.0
21:14 12.6 10.1 85 1004.4 15.2 W 15.2 0.0 0.0
21:15 12.6 10.3 86 1004.4 11.4 S 15.2 0.0 0.0
21:16 12.6 10.3 86 1004.3 11.4 S 15.2 0.0 0.0
21:17 12.6 10.3 86 1004.2 11.4 S 15.2 0.0 0.0
21:18 12.6 10.3 86 1004.2 11.4 S 15.2 0.0 0.0
21:19 12.6 10.3 86 1004.4 9.8 SW 15.2 0.0 0.0
21:20 12.7 10.4 86 1004.3 8.3 W 15.2 0.0 0.0
21:21 12.7 10.4 86 1004.3 11.4 SW 15.2 0.0 0.0
21:22 12.7 10.4 86 1004.2 13.0 S 15.2 0.0 0.0
21:24 12.7 10.4 86 1004.4 15.9 S 15.9 0.0 0.0
21:25 12.7 10.4 86 1004.3 13.6 S 15.9 0.0 0.0
21:26 12.6 10.3 86 1004.1 13.6 SW 15.9 0.0 0.0
21:27 12.6 10.3 86 1004.2 9.8 SSW 15.9 0.0 0.0
21:28 12.6 10.3 86 1004.4 13.6 S 15.9 0.0 0.0
21:29 12.6 10.3 86 1004.2 13.6 SW 15.9 0.0 0.0
21:31 12.6 10.5 87 1004.3 10.7 SW 15.9 0.0 0.0
21:32 12.6 10.5 87 1004.7 7.6 WSW 15.9 0.0 0.0
21:33 12.6 10.5 87 1004.6 7.6 SW 15.9 0.0 0.0
21:34 12.6 10.5 87 1004.4 9.2 SE 13.6 0.0 0.0
21:35 12.6 10.5 87 1004.6 6.0 SW 13.6 0.0 0.0
21:36 12.6 10.5 87 1004.5 6.0 SW 13.6 0.0 0.0
21:37 12.6 10.5 87 1004.4 11.4 W 13.6 0.0 0.0
21:38 12.6 10.5 87 1004.5 9.2 SW 13.6 0.0 0.0
21:39 12.6 10.5 87 1004.1 9.8 SW 13.6 0.0 0.0
21:40 12.6 10.5 87 1004.3 13.6 S 13.6 0.0 0.0
21:41 12.6 10.5 87 1004.4 13.0 S 13.6 0.0 0.0
21:42 12.6 10.5 87 1004.3 9.2 SW 13.6 0.0 0.0
21:43 12.6 10.5 87 1004.5 11.4 SW 13.6 0.0 0.0
21:44 12.6 10.5 87 1004.5 11.4 SW 13.6 0.0 0.0
21:45 12.6 10.5 87 1004.3 12.1 S 13.6 0.0 0.0
21:47 12.7 10.6 87 1004.3 15.2 SW 15.2 0.0 0.0
21:48 12.7 10.6 87 1004.2 15.2 SW 15.2 0.0 0.0
21:49 12.7 10.6 87 1004.2 12.1 SW 15.2 0.0 0.0
21:50 12.7 10.6 87 1004.2 12.1 SW 15.2 0.0 0.0
21:51 12.7 10.6 87 1004.3 8.3 SE 15.2 0.0 0.0
21:52 12.7 10.8 88 1004.2 7.6 SW 15.2 0.0 0.0
21:53 12.7 10.8 88 1004.2 7.6 SW 15.2 0.0 0.0
21:54 12.7 10.8 88 1004.4 9.8 S 15.2 0.0 0.0
21:55 12.7 10.8 88 1004.2 9.8 S 15.2 0.0 0.0
21:56 12.7 10.8 88 1004.3 9.8 SW 15.2 0.0 0.0
21:57 12.7 10.8 88 1004.2 11.4 SW 15.2 0.0 0.0
21:58 12.7 10.8 88 1004.2 6.9 SW 15.2 0.0 0.0
21:59 12.7 10.8 88 1004.4 14.5 SW 14.5 0.0 0.0
22:00 12.7 10.8 88 1004.2 14.5 SW 14.5 0.0 0.0
22:01 12.7 10.8 88 1004.1 14.5 SW 14.5 0.0 0.0
22:02 12.7 10.8 88 1004.1 14.5 SW 14.5 0.0 0.0
22:03 12.7 10.8 88 1004.3 14.5 SW 14.5 0.0 0.0
22:05 12.7 10.8 88 1004.3 14.5 SW 14.5 0.0 0.0
22:06 12.7 10.8 88 1004.2 6.0 SW 14.5 0.0 0.0
22:07 12.7 10.8 88 1004.3 7.6 SW 14.5 0.0 0.0
22:08 12.7 10.8 88 1004.4 10.7 SW 14.5 0.0 0.0
22:09 12.7 10.8 88 1004.3 6.9 NW 14.5 0.0 0.0
22:10 12.7 10.8 88 1004.2 11.4 S 14.5 0.0 0.0
22:11 12.7 10.8 88 1004.3 13.6 S 14.5 0.0 0.0
22:12 12.7 10.8 88 1004.2 15.2 SW 15.2 0.0 0.0
22:13 12.7 10.8 88 1004.0 13.0 W 15.2 0.0 0.0
22:14 12.7 10.8 88 1004.3 9.2 SW 15.2 0.0 0.0
22:15 12.8 10.9 88 1004.1 9.8 W 15.2 0.0 0.0
22:16 12.8 10.9 88 1004.3 9.8 S 15.2 0.0 0.0
22:17 12.8 10.9 88 1004.1 13.0 W 15.2 0.0 0.0
22:18 12.8 10.9 88 1004.3 9.8 S 15.2 0.0 0.0
22:19 12.8 10.9 88 1004.2 9.2 W 15.2 0.0 0.0
22:21 12.8 11.0 89 1004.1 13.0 SE 15.9 0.0 0.0
22:22 12.8 11.0 89 1004.0 9.8 S 15.9 0.0 0.0
22:23 12.8 11.0 89 1004.1 9.8 S 15.9 0.0 0.0
22:24 12.8 11.0 89 1004.0 10.7 SW 15.9 0.0 0.0
22:25 12.8 11.0 89 1004.0 8.3 SW 15.9 0.0 0.0
22:26 12.8 11.0 89 1004.2 7.6 S 15.9 0.0 0.0
22:27 12.8 11.0 89 1004.1 7.6 SW 15.9 0.0 0.0
22:28 12.8 11.0 89 1004.0 9.8 SW 15.9 0.0 0.0
22:29 12.8 11.0 89 1004.1 9.2 SSW 15.9 0.0 0.0
22:30 12.8 11.0 89 1004.0 8.3 SW 15.9 0.0 0.0
22:31 12.8 11.0 89 1004.1 10.7 SW 13.0 0.0 0.0
22:32 12.8 11.0 89 1004.2 11.4 S 11.4 0.0 0.0
22:33 12.8 11.0 89 1003.8 9.8 SW 11.4 0.0 0.0
22:34 12.8 11.0 89 1003.9 9.2 SW 11.4 0.0 0.0
22:35 12.8 11.0 89 1004.1 15.9 WSW 15.9 0.0 0.0
22:36 12.8 11.0 89 1004.0 7.6 S 15.9 0.0 0.0
22:38 12.8 11.0 89 1004.1 7.6 SW 15.9 0.0 0.0
22:39 12.8 11.0 89 1004.0 10.7 S 15.9 0.0 0.0
22:40 12.8 11.0 89 1003.8 10.7 SW 15.9 0.0 0.0
22:41 12.8 11.0 89 1003.8 9.2 SW 15.9 0.0 0.0
22:42 12.8 11.0 89 1003.8 9.2 SW 15.9 0.0 0.0
22:43 12.8 11.0 89 1003.9 8.3 S 15.9 0.0 0.0
22:44 12.8 11.0 89 1003.8 10.7 SW 15.9 0.0 0.0
22:45 12.8 11.0 89 1004.0 12.1 S 15.9 0.0 0.0
22:46 12.8 11.0 89 1003.7 11.4 S 15.9 0.0 0.0
22:47 12.8 11.0 89 1003.8 11.4 SW 13.6 0.0 0.0
22:48 12.8 11.0 89 1003.6 9.8 SW 13.6 0.0 0.0
22:49 12.8 11.0 89 1003.8 11.4 SW 13.6 0.0 0.0
22:50 12.8 11.0 89 1003.8 11.4 SW 13.6 0.0 0.0
22:51 12.8 11.0 89 1004.0 12.1 S 15.2 0.0 0.0
22:52 12.8 11.0 89 1003.9 10.7 W 15.2 0.0 0.0
22:53 12.8 11.0 89 1003.9 14.5 S 15.2 0.0 0.0
22:55 12.8 11.0 89 1003.8 12.1 S 15.2 0.0 0.0
22:56 12.8 11.0 89 1004.0 13.0 S 15.2 0.0 0.0
22:57 12.8 11.0 89 1003.7 10.7 SW 15.2 0.0 0.0
22:58 12.8 11.0 89 1003.8 9.8 S 15.2 0.0 0.0
22:59 12.8 11.0 89 1003.7 7.6 NW 15.2 0.0 0.0
23:00 12.8 11.0 89 1003.7 9.8 NW 15.2 0.0 0.0
23:01 12.8 11.0 89 1003.7 9.8 NW 15.2 0.0 0.0
23:02 12.8 11.0 89 1003.5 9.8 NW 15.2 0.0 0.0
23:03 12.8 11.0 89 1003.7 9.8 NW 15.2 0.0 0.0
23:04 12.8 11.0 89 1003.5 9.8 NW 15.2 0.0 0.0
23:05 12.8 11.0 89 1003.8 9.8 NW 15.2 0.0 0.0
23:06 12.8 11.0 89 1003.5 9.8 NW 15.2 0.0 0.0
23:07 12.8 11.0 89 1003.6 11.4 SW 11.4 0.0 0.0
23:08 12.8 11.0 89 1003.6 11.4 SW 11.4 0.0 0.0
23:09 12.8 11.0 89 1003.4 9.8 SW 11.4 0.0 0.0
23:11 12.8 11.0 89 1003.7 9.8 S 11.4 0.0 0.0
23:12 12.8 11.0 89 1003.6 6.9 SW 11.4 0.0 0.0
23:13 12.8 11.0 89 1003.6 5.4 SW 11.4 0.0 0.0
23:14 12.8 11.0 89 1003.5 10.7 SW 11.4 0.0 0.0
23:15 12.8 11.0 89 1003.7 11.4 SW 11.4 0.0 0.0
23:16 12.8 11.0 89 1003.4 12.1 S 12.1 0.0 0.0
23:17 12.8 11.0 89 1003.7 11.4 S 12.1 0.0 0.0
23:18 12.8 11.0 89 1003.5 9.8 W 12.1 0.0 0.0
23:19 12.8 11.0 89 1003.6 6.9 SW 12.1 0.0 0.0
23:20 12.8 11.0 89 1003.4 9.8 SW 12.1 0.0 0.0
23:21 12.8 11.2 90 1003.6 7.6 SW 12.1 0.0 0.0
23:22 12.8 11.2 90 1003.5 7.6 SW 12.1 0.0 0.0
23:24 12.7 11.1 90 1003.3 15.2 SW 15.2 0.0 0.0
23:25 12.7 11.1 90 1003.6 8.3 SW 15.2 0.0 0.0
23:26 12.7 11.1 90 1003.3 15.2 WSW 15.2 0.0 0.0
23:27 12.7 11.1 90 1003.6 15.2 SW 15.2 0.0 0.0
23:28 12.7 11.1 90 1003.3 12.1 SW 15.2 0.0 0.0
23:29 12.7 11.1 90 1003.5 12.1 SW 15.2 0.0 0.0
23:30 12.7 11.1 90 1003.4 11.4 SW 15.2 0.0 0.0
23:31 12.7 11.1 90 1003.4 12.1 SW 15.2 0.0 0.0
23:32 12.7 11.1 90 1003.4 5.4 S 15.2 0.0 0.0
23:33 12.7 11.1 90 1003.3 8.3 S 15.2 0.0 0.0
23:34 12.7 11.1 90 1003.6 8.3 SW 15.2 0.0 0.0
23:35 12.7 11.1 90 1003.4 9.8 SW 15.2 0.0 0.0
23:37 12.7 11.1 90 1003.3 16.8 S 16.8 0.0 0.0
23:38 12.7 11.1 90 1003.5 13.6 N 16.8 0.0 0.0
23:39 12.7 11.1 90 1003.3 13.6 N 16.8 0.0 0.0
23:40 12.7 11.1 90 1003.3 9.8 S 16.8 0.0 0.0
23:41 12.7 11.1 90 1003.4 9.2 S 16.8 0.0 0.0
23:42 12.7 11.1 90 1003.4 9.2 S 16.8 0.0 0.0
23:43 12.7 11.1 90 1003.3 15.2 S 16.8 0.0 0.0
23:44 12.7 11.1 90 1003.5 16.8 S 16.8 0.0 0.0
23:45 12.7 11.1 90 1003.3 16.8 W 16.8 0.0 0.0
23:46 12.7 11.1 90 1003.3 13.0 SW 16.8 0.0 0.0
23:47 12.7 11.1 90 1003.3 9.2 S 16.8 0.0 0.0
23:48 12.7 11.1 90 1003.3 11.4 SW 16.8 0.0 0.0
23:49 12.7 11.1 90 1003.4 9.2 SW 16.8 0.0 0.0
23:50 12.7 11.1 90 1003.2 13.0 S 16.8 0.0 0.0
23:51 12.7 11.1 90 1003.3 9.2 W 16.8 0.0 0.0
23:53 12.7 11.1 90 1003.2 11.4 S 16.8 0.0 0.0
23:54 12.7 11.1 90 1003.4 11.4 SW 16.8 0.0 0.0
23:55 12.7 11.1 90 1003.6 11.4 S 13.0 0.0 0.0
23:56 12.7 11.1 90 1003.3 7.6 N 13.0 0.0 0.0
23:57 12.7 11.1 90 1003.3 12.1 S 13.0 0.0 0.0
23:58 12.7 11.1 90 1003.3 12.1 S 13.0 0.0 0.0
23:59 12.7 11.1 90 1003.4 13.0 S 13.0 0.0 0.0

 

 

UK - WEATHER STATION TOPSITES - UK World Weather Websites

Copyright © Carnkie Weather 2009 - 2020.